Air Quality Table

TIMESTAMP NO2 O3 PM2.5 TEMP HUM AIRPRES WS WD NO
2022-01-21 06:00 N/A 81.2 µg/m3 6.3 µg/m3 10.6 °C N/A 1,009.82 mbar 1.1 m/s 292.65 Deg N/A
2022-01-21 05:00 N/A 86.94 µg/m3 3.82 µg/m3 10.63 °C N/A 1,009.94 mbar 0.83 m/s 291.2 Deg N/A
2022-01-21 04:00 N/A 90.11 µg/m3 3.77 µg/m3 10.95 °C N/A 1,010.29 mbar 0.91 m/s 294.42 Deg N/A
2022-01-21 03:00 N/A 90.03 µg/m3 6.13 µg/m3 11.27 °C N/A 1,010.79 mbar 1.24 m/s 301.42 Deg N/A
2022-01-21 02:00 N/A 86.37 µg/m3 6.77 µg/m3 11.26 °C N/A 1,011.00 mbar 1.13 m/s 292.67 Deg N/A
2022-01-21 01:00 N/A 88.22 µg/m3 6.36 µg/m3 11.59 °C N/A 1,011.42 mbar 1.26 m/s 301.93 Deg N/A
2022-01-21 00:00 N/A 83.4 µg/m3 9.48 µg/m3 11.98 °C N/A 1,011.85 mbar 1.39 m/s 287.42 Deg N/A
2022-01-20 23:00 N/A 67.18 µg/m3 9.35 µg/m3 11.03 °C N/A 1,012.18 mbar 0.69 m/s 302.91 Deg N/A
2022-01-20 22:00 N/A 67.18 µg/m3 10.61 µg/m3 10.94 °C N/A 1,012.32 mbar 0.42 m/s 306.67 Deg N/A
2022-01-20 21:00 N/A 44.23 µg/m3 8.42 µg/m3 10.89 °C N/A 1,012.28 mbar 0.48 m/s 283.8 Deg N/A
2022-01-20 20:00 N/A 61.81 µg/m3 7.89 µg/m3 11.55 °C N/A 1,012.29 mbar 0.54 m/s 295.75 Deg N/A
2022-01-20 19:00 N/A 54 µg/m3 5.98 µg/m3 12.17 °C N/A 1,012.18 mbar 0.68 m/s 292.95 Deg N/A
2022-01-20 18:00 N/A 48.74 µg/m3 5.36 µg/m3 12.78 °C N/A 1,012.05 mbar 0.7 m/s 301.63 Deg N/A
2022-01-20 17:00 N/A 68.45 µg/m3 4.69 µg/m3 13.78 °C N/A 1,012.03 mbar 1.09 m/s 319.61 Deg N/A
2022-01-20 16:00 N/A 75.11 µg/m3 3.24 µg/m3 14.19 °C N/A 1,012.08 mbar 0.95 m/s 330.45 Deg N/A
2022-01-20 15:00 N/A 79.73 µg/m3 5.9 µg/m3 15.19 °C N/A 1,012.36 mbar 1.06 m/s 325.93 Deg N/A
2022-01-20 14:00 N/A 79.49 µg/m3 3.54 µg/m3 14.58 °C N/A 1,013.04 mbar 1.25 m/s 343.85 Deg N/A
2022-01-20 13:00 N/A 77.16 µg/m3 3.75 µg/m3 14.53 °C N/A 1,013.74 mbar 1.25 m/s 324.91 Deg N/A
2022-01-20 12:00 N/A 69.36 µg/m3 5.6 µg/m3 13.71 °C N/A 1,014.85 mbar 1.19 m/s 313.33 Deg N/A
2022-01-20 11:00 N/A 72.57 µg/m3 7.27 µg/m3 14.61 °C N/A 1,015.11 mbar 1.51 m/s 293.47 Deg N/A
2022-01-20 10:00 N/A 63.56 µg/m3 13.85 µg/m3 14.18 °C N/A 1,015.05 mbar 1.3 m/s 265.02 Deg N/A
2022-01-20 09:00 N/A 19.74 µg/m3 17.7 µg/m3 12.14 °C N/A 1,015.12 mbar 0.69 m/s 245.63 Deg N/A
2022-01-20 08:00 N/A 2.12 µg/m3 9.31 µg/m3 9.57 °C N/A 1,015.51 mbar 0.4 m/s 276.28 Deg N/A
2022-01-20 07:00 N/A 13.08 µg/m3 4.41 µg/m3 9.88 °C N/A 1,015.47 mbar 0.49 m/s 294.17 Deg N/A
2022-01-20 06:00 N/A 36.19 µg/m3 3.33 µg/m3 9.73 °C N/A 1,015.36 mbar 0.59 m/s 285.29 Deg N/A
2022-01-20 05:00 N/A 59.9 µg/m3 2.61 µg/m3 9.94 °C N/A 1,015.52 mbar 0.9 m/s 279.97 Deg N/A
2022-01-20 04:00 N/A 55.06 µg/m3 2.41 µg/m3 10.56 °C N/A 1,016.00 mbar 0.61 m/s 279.8 Deg N/A
2022-01-20 03:00 N/A 58.08 µg/m3 3.24 µg/m3 10.79 °C N/A 1,016.48 mbar 0.62 m/s 288.75 Deg N/A
2022-01-20 02:00 N/A 55.96 µg/m3 3.9 µg/m3 9.95 °C N/A 1,016.84 mbar 0.75 m/s 289.03 Deg N/A
2022-01-20 01:00 N/A 53.39 µg/m3 3.45 µg/m3 9.71 °C N/A 1,017.13 mbar 0.62 m/s 280.48 Deg N/A
2022-01-20 00:00 N/A 51.04 µg/m3 7.02 µg/m3 10.11 °C N/A 1,017.53 mbar 0.75 m/s 285.23 Deg N/A
2022-01-19 23:00 N/A 48.91 µg/m3 10.12 µg/m3 10.53 °C N/A 1,017.85 mbar 0.52 m/s 275.8 Deg N/A
2022-01-19 22:00 N/A 41.63 µg/m3 14.43 µg/m3 11.33 °C N/A 1,018.01 mbar 0.33 m/s 251.23 Deg N/A
2022-01-19 21:00 N/A 25.7 µg/m3 13.05 µg/m3 11.63 °C N/A 1,018.08 mbar 0.35 m/s 214.02 Deg N/A
2022-01-19 20:00 N/A 22.67 µg/m3 9.31 µg/m3 12.12 °C N/A 1,017.99 mbar 0.51 m/s 214.29 Deg N/A
2022-01-19 19:00 N/A 44.9 µg/m3 5.3 µg/m3 12.08 °C N/A 1,018.06 mbar 0.87 m/s 159.07 Deg N/A
2022-01-19 18:00 N/A 64.64 µg/m3 7.02 µg/m3 12.93 °C N/A 1,017.66 mbar 1.79 m/s 175.37 Deg N/A
2022-01-19 17:00 N/A 72.01 µg/m3 5.51 µg/m3 14.16 °C N/A 1,017.36 mbar 1.78 m/s 198.37 Deg N/A
2022-01-19 16:00 N/A 77 µg/m3 4.01 µg/m3 14.71 °C N/A 1,017.40 mbar 2.01 m/s 213.12 Deg N/A
2022-01-19 15:00 N/A 78.14 µg/m3 6 µg/m3 14.47 °C N/A 1,017.77 mbar 1.74 m/s 216.76 Deg N/A
2022-01-19 14:00 N/A 72.66 µg/m3 6.04 µg/m3 14.28 °C N/A 1,018.13 mbar 1.81 m/s 209.85 Deg N/A
2022-01-19 13:00 N/A 66.02 µg/m3 7.08 µg/m3 14.33 °C N/A 1,018.98 mbar 1.97 m/s 189.87 Deg N/A
2022-01-19 12:00 N/A 60.48 µg/m3 11.07 µg/m3 14.38 °C N/A 1,019.52 mbar 1.74 m/s 166.9 Deg N/A
2022-01-19 11:00 N/A 49.95 µg/m3 19.71 µg/m3 13.95 °C N/A 1,019.84 mbar 1.61 m/s 162.57 Deg N/A
2022-01-19 10:00 N/A 11.25 µg/m3 24.04 µg/m3 12.81 °C N/A 1,019.92 mbar 0.9 m/s 173.07 Deg N/A
2022-01-19 09:00 N/A 3.28 µg/m3 15.62 µg/m3 11.57 °C N/A 1,019.50 mbar 0.28 m/s 269.52 Deg N/A
2022-01-19 08:00 N/A 2.2 µg/m3 7.95 µg/m3 10.98 °C N/A 1,019.29 mbar 0.25 m/s 266.88 Deg N/A
2022-01-19 07:00 N/A 30 µg/m3 3.99 µg/m3 11.18 °C N/A 1,018.78 mbar 0.38 m/s 329.25 Deg N/A
2022-01-19 06:00 N/A 51.94 µg/m3 1.97 µg/m3 11.33 °C N/A 1,018.52 mbar 0.56 m/s 340.36 Deg N/A
2022-01-19 05:00 N/A 61.61 µg/m3 1.76 µg/m3 11.28 °C N/A 1,018.47 mbar 0.37 m/s 334.49 Deg N/A
2022-01-19 04:00 N/A 59.05 µg/m3 2.58 µg/m3 10.77 °C N/A 1,018.70 mbar 0.29 m/s 318.8 Deg N/A
2022-01-19 03:00 N/A 49.98 µg/m3 5.58 µg/m3 10.36 °C N/A 1,018.87 mbar 0.36 m/s 302.96 Deg N/A
2022-01-19 02:00 N/A 57 µg/m3 7.25 µg/m3 10.44 °C N/A 1,019.04 mbar 0.37 m/s 308.58 Deg N/A
2022-01-19 01:00 N/A 52.82 µg/m3 10.12 µg/m3 10.62 °C N/A 1,019.22 mbar 0.42 m/s 293.24 Deg N/A
2022-01-19 00:00 N/A 46.56 µg/m3 10.03 µg/m3 10.36 °C N/A 1,019.40 mbar 0.37 m/s 300.17 Deg N/A
2022-01-18 23:00 N/A 43.67 µg/m3 11.37 µg/m3 9.68 °C N/A 1,019.84 mbar 0.41 m/s 296.99 Deg N/A
2022-01-18 22:00 N/A 40.9 µg/m3 16.51 µg/m3 9.85 °C N/A 1,019.65 mbar 0.44 m/s 293.36 Deg N/A
2022-01-18 21:00 N/A 43.26 µg/m3 15.36 µg/m3 10.23 °C N/A 1,019.59 mbar 0.34 m/s 297.41 Deg N/A
2022-01-18 20:00 N/A 45.34 µg/m3 13.39 µg/m3 10.78 °C N/A 1,019.29 mbar 0.32 m/s 304.34 Deg N/A
2022-01-18 19:00 N/A 50.75 µg/m3 8.19 µg/m3 11.12 °C N/A 1,018.84 mbar 0.31 m/s 236.62 Deg N/A
2022-01-18 18:00 N/A 47.15 µg/m3 3.77 µg/m3 12.04 °C N/A 1,018.17 mbar 0.37 m/s 320.43 Deg N/A
2022-01-18 17:00 N/A 77.1 µg/m3 2.2 µg/m3 13.38 °C N/A 1,017.64 mbar 1.18 m/s 99.56 Deg N/A
2022-01-18 16:00 N/A 79.79 µg/m3 2.82 µg/m3 13.49 °C N/A 1,017.44 mbar 1.36 m/s 94.9 Deg N/A
2022-01-18 15:00 N/A 84.49 µg/m3 2.27 µg/m3 14.67 °C N/A 1,017.09 mbar 1.81 m/s 16.82 Deg N/A
2022-01-18 14:00 N/A 86.57 µg/m3 3.71 µg/m3 14.75 °C N/A 1,017.20 mbar 2.24 m/s 16.85 Deg N/A
2022-01-18 13:00 N/A 83.51 µg/m3 2.63 µg/m3 14.83 °C N/A 1,017.66 mbar 1.87 m/s 98.94 Deg N/A
2022-01-18 12:00 N/A 81.09 µg/m3 3.73 µg/m3 14.56 °C N/A 1,018.07 mbar 2.58 m/s 99.27 Deg N/A
2022-01-18 11:00 N/A 73.78 µg/m3 4.92 µg/m3 14.07 °C N/A 1,018.13 mbar 1.76 m/s 184.32 Deg N/A
2022-01-18 10:00 N/A 59.39 µg/m3 4.56 µg/m3 13.74 °C N/A 1,017.47 mbar 1 m/s 343.76 Deg N/A
2022-01-18 09:00 N/A 49.32 µg/m3 5.19 µg/m3 12.09 °C N/A 1,016.92 mbar 0.66 m/s 326.89 Deg N/A
2022-01-18 08:00 N/A 45.89 µg/m3 3.69 µg/m3 11.36 °C N/A 1,016.46 mbar 0.52 m/s 326.94 Deg N/A
2022-01-18 07:00 N/A 55.52 µg/m3 1.31 µg/m3 11.13 °C N/A 1,015.95 mbar 0.66 m/s 333.99 Deg N/A
2022-01-18 06:00 N/A 65.48 µg/m3 0.72 µg/m3 10.62 °C N/A 1,015.43 mbar 0.66 m/s 333.06 Deg N/A
2022-01-18 05:00 N/A 70.62 µg/m3 2.12 µg/m3 10.61 °C N/A 1,015.02 mbar 0.81 m/s 322.94 Deg N/A
2022-01-18 04:00 N/A 69.24 µg/m3 1.5 µg/m3 10.53 °C N/A 1,015.11 mbar 0.69 m/s 323.49 Deg N/A
2022-01-18 03:00 N/A 69.96 µg/m3 1.2 µg/m3 10.75 °C N/A 1,015.01 mbar 0.83 m/s 339.84 Deg N/A
2022-01-18 02:00 N/A 74.78 µg/m3 2.05 µg/m3 11.3 °C N/A 1,014.93 mbar 0.79 m/s 315.18 Deg N/A
2022-01-18 01:00 N/A 76.41 µg/m3 3.16 µg/m3 11.83 °C N/A 1,014.85 mbar 1.08 m/s 333.13 Deg N/A
2022-01-18 00:00 N/A 73.96 µg/m3 1.4 µg/m3 12.13 °C N/A 1,014.75 mbar 1.4 m/s 348.62 Deg N/A
2022-01-17 23:00 N/A 75.9 µg/m3 1.35 µg/m3 12.2 °C N/A 1,014.66 mbar 0.99 m/s 341.57 Deg N/A
2022-01-17 22:00 N/A 78.38 µg/m3 3.28 µg/m3 12.19 °C N/A 1,014.69 mbar 0.98 m/s 327.54 Deg N/A
2022-01-17 21:00 N/A 80.42 µg/m3 2.33 µg/m3 12.7 °C N/A 1,014.64 mbar 1.28 m/s 333.72 Deg N/A
2022-01-17 20:00 N/A 82.5 µg/m3 2.39 µg/m3 12.86 °C N/A 1,014.18 mbar 1.06 m/s 320.63 Deg N/A
2022-01-17 19:00 N/A 84.79 µg/m3 3.28 µg/m3 12.89 °C N/A 1,013.94 mbar 1.32 m/s 333.55 Deg N/A
2022-01-17 18:00 N/A 84.93 µg/m3 4.54 µg/m3 13.01 °C N/A 1,013.61 mbar 1.46 m/s 337.17 Deg N/A
2022-01-17 17:00 N/A 85.77 µg/m3 5.13 µg/m3 13.45 °C N/A 1,013.30 mbar 1.57 m/s 328.92 Deg N/A
2022-01-17 16:00 N/A 89.74 µg/m3 4.77 µg/m3 14.44 °C N/A 1,013.23 mbar 1.71 m/s 330.77 Deg N/A
2022-01-17 15:00 N/A 85.18 µg/m3 4.75 µg/m3 14.41 °C N/A 1,013.20 mbar 1.87 m/s 335.61 Deg N/A
2022-01-17 14:00 N/A 83.77 µg/m3 3.01 µg/m3 14.94 °C N/A 1,013.60 mbar 2.15 m/s 329.37 Deg N/A
2022-01-17 13:00 N/A 80.52 µg/m3 4.07 µg/m3 14.7 °C N/A 1,014.42 mbar 1.91 m/s 334.66 Deg N/A
2022-01-17 12:00 N/A 79.19 µg/m3 1.57 µg/m3 15.03 °C N/A 1,014.88 mbar 1.65 m/s 327.42 Deg N/A
2022-01-17 11:00 N/A 76.82 µg/m3 2.84 µg/m3 14.75 °C N/A 1,015.82 mbar 1.52 m/s 335.73 Deg N/A
2022-01-17 10:00 N/A 65.14 µg/m3 4.24 µg/m3 13.77 °C N/A 1,015.55 mbar 1.38 m/s 322.02 Deg N/A
2022-01-17 09:00 N/A 42.38 µg/m3 3.31 µg/m3 12.45 °C N/A 1,015.34 mbar 0.5 m/s 345.61 Deg N/A
2022-01-17 08:00 N/A 49.65 µg/m3 2.86 µg/m3 11.15 °C N/A 1,015.38 mbar 0.49 m/s 326.69 Deg N/A
2022-01-17 07:00 N/A 58.99 µg/m3 2.39 µg/m3 11.11 °C N/A 1,015.19 mbar 0.73 m/s 325.99 Deg N/A
2022-01-17 06:00 N/A 64.43 µg/m3 1.93 µg/m3 11.44 °C N/A 1,014.90 mbar 0.75 m/s 336.84 Deg N/A
2022-01-17 05:00 N/A 70.24 µg/m3 2.39 µg/m3 11.37 °C N/A 1,014.67 mbar 0.65 m/s 318.17 Deg N/A
2022-01-17 04:00 N/A 68.3 µg/m3 2.52 µg/m3 11.36 °C N/A 1,014.80 mbar 0.54 m/s 330.76 Deg N/A
2022-01-17 03:00 N/A 66.84 µg/m3 1.67 µg/m3 11.36 °C N/A 1,015.07 mbar 0.43 m/s 328.21 Deg N/A
2022-01-17 02:00 N/A 68.18 µg/m3 2.92 µg/m3 11.34 °C N/A 1,014.96 mbar 0.93 m/s 349.39 Deg N/A
2022-01-17 01:00 N/A 65.04 µg/m3 5.66 µg/m3 11.3 °C N/A 1,015.08 mbar 0.82 m/s 332.1 Deg N/A
2022-01-17 00:00 N/A 65.18 µg/m3 9.78 µg/m3 11.29 °C N/A 1,015.27 mbar 0.57 m/s 331.99 Deg N/A
2022-01-16 23:00 N/A 58.38 µg/m3 13.71 µg/m3 11.07 °C N/A 1,015.59 mbar 0.36 m/s 330.86 Deg N/A
2022-01-16 22:00 N/A 55.79 µg/m3 11.14 µg/m3 11.03 °C N/A 1,015.60 mbar 0.35 m/s 334.82 Deg N/A
2022-01-16 21:00 N/A 52.52 µg/m3 11.94 µg/m3 11.36 °C N/A 1,015.33 mbar 0.34 m/s 328.38 Deg N/A
2022-01-16 20:00 N/A 30.54 µg/m3 9.04 µg/m3 11.33 °C N/A 1,014.87 mbar 0.4 m/s 291.75 Deg N/A
2022-01-16 19:00 N/A 34.91 µg/m3 6.26 µg/m3 12.04 °C N/A 1,014.46 mbar 0.31 m/s 297.26 Deg N/A
2022-01-16 18:00 N/A 50.52 µg/m3 6.11 µg/m3 13.54 °C N/A 1,013.88 mbar 0.37 m/s 295.34 Deg N/A
2022-01-16 17:00 N/A 76.84 µg/m3 4.2 µg/m3 15.08 °C N/A 1,013.30 mbar 0.96 m/s 80.48 Deg N/A
2022-01-16 16:00 N/A 82.65 µg/m3 3.45 µg/m3 16.74 °C N/A 1,013.09 mbar 0.66 m/s 230.52 Deg N/A
2022-01-16 15:00 N/A 83.5 µg/m3 4.32 µg/m3 16.59 °C N/A 1,013.02 mbar 0.96 m/s 167.95 Deg N/A
2022-01-16 14:00 N/A 80.49 µg/m3 3.67 µg/m3 16.52 °C N/A 1,013.12 mbar 0.97 m/s 328.77 Deg N/A
2022-01-16 13:00 N/A 76.29 µg/m3 3.22 µg/m3 16.19 °C N/A 1,013.50 mbar 1.09 m/s 251.53 Deg N/A
2022-01-16 12:00 N/A 69.5 µg/m3 5.03 µg/m3 15.84 °C N/A 1,013.86 mbar 0.89 m/s 257.77 Deg N/A
2022-01-16 11:00 N/A 67.56 µg/m3 5.64 µg/m3 15.35 °C N/A 1,014.03 mbar 0.84 m/s 317.64 Deg N/A
2022-01-16 10:00 N/A 54.68 µg/m3 4.94 µg/m3 15.1 °C N/A 1,013.77 mbar 0.6 m/s 164.51 Deg N/A
2022-01-16 09:00 N/A 26.11 µg/m3 5.41 µg/m3 11.09 °C N/A 1,013.37 mbar 0.52 m/s 282.3 Deg N/A
2022-01-16 08:00 N/A 15.61 µg/m3 5.45 µg/m3 8.13 °C N/A 1,013.13 mbar 0.55 m/s 298.43 Deg N/A
2022-01-16 07:00 N/A 21.67 µg/m3 5.77 µg/m3 7.58 °C N/A 1,012.41 mbar 0.38 m/s 289.15 Deg N/A
2022-01-16 06:00 N/A 26.53 µg/m3 2.33 µg/m3 8.3 °C N/A 1,011.62 mbar 0.46 m/s 299.47 Deg N/A
2022-01-16 05:00 N/A 34.57 µg/m3 1.9 µg/m3 8.31 °C N/A 1,011.64 mbar 0.74 m/s 294.67 Deg N/A
2022-01-16 04:00 N/A 34.46 µg/m3 1.33 µg/m3 8.19 °C N/A 1,012.03 mbar 0.51 m/s 295.62 Deg N/A
2022-01-16 03:00 N/A 35 µg/m3 1.5 µg/m3 8.28 °C N/A 1,011.91 mbar 0.46 m/s 291.48 Deg N/A
2022-01-16 02:00 N/A 29.07 µg/m3 2.35 µg/m3 8.47 °C N/A 1,011.25 mbar 0.66 m/s 295.15 Deg N/A
2022-01-16 01:00 N/A 32.4 µg/m3 1.63 µg/m3 8.39 °C N/A 1,011.59 mbar 0.53 m/s 292.37 Deg N/A
2022-01-16 00:00 N/A 41.96 µg/m3 8.19 µg/m3 9.02 °C N/A 1,011.24 mbar 0.34 m/s 303.14 Deg N/A
2022-01-15 23:00 N/A 45.05 µg/m3 8.38 µg/m3 9.18 °C N/A 1,010.80 mbar 0.37 m/s 315.82 Deg N/A
2022-01-15 22:00 N/A 48.61 µg/m3 6.47 µg/m3 9.33 °C N/A 1,011.36 mbar 0.41 m/s 311.72 Deg N/A
2022-01-15 21:00 N/A 49.24 µg/m3 7.98 µg/m3 9.79 °C N/A 1,010.86 mbar 0.37 m/s 311.98 Deg N/A
2022-01-15 20:00 N/A 48.77 µg/m3 6.51 µg/m3 10.1 °C N/A 1,010.65 mbar 0.42 m/s 309.43 Deg N/A
2022-01-15 19:00 N/A 60.19 µg/m3 5.24 µg/m3 10.9 °C N/A 1,010.39 mbar 0.51 m/s 313.38 Deg N/A
2022-01-15 18:00 N/A 59.4 µg/m3 3.65 µg/m3 11.52 °C N/A 1,009.98 mbar 0.53 m/s 321.2 Deg N/A
2022-01-15 17:00 N/A 77.12 µg/m3 2.67 µg/m3 12.96 °C N/A 1,009.77 mbar 1.22 m/s 355 Deg N/A
2022-01-15 16:00 N/A 83.79 µg/m3 1.67 µg/m3 13.57 °C N/A 1,009.50 mbar 1.88 m/s 9.5 Deg N/A
2022-01-15 15:00 N/A 85.93 µg/m3 1.2 µg/m3 13.99 °C N/A 1,009.40 mbar 1.95 m/s 24.05 Deg N/A
2022-01-15 14:00 N/A 82.76 µg/m3 2.35 µg/m3 14.35 °C N/A 1,009.58 mbar 1.8 m/s 100.8 Deg N/A
2022-01-15 13:00 N/A 82.52 µg/m3 3.65 µg/m3 13.86 °C N/A 1,010.46 mbar 2.24 m/s 19.28 Deg N/A
2022-01-15 12:00 N/A 78.2 µg/m3 4.77 µg/m3 13.78 °C N/A 1,011.28 mbar 1.73 m/s 177.42 Deg N/A
2022-01-15 11:00 N/A 74.24 µg/m3 5.68 µg/m3 13.36 °C N/A 1,011.78 mbar 1.44 m/s 259.75 Deg N/A
2022-01-15 10:00 N/A 63.71 µg/m3 5.9 µg/m3 12.61 °C N/A 1,011.74 mbar 0.8 m/s 339.59 Deg N/A
2022-01-15 09:00 N/A 41.18 µg/m3 4.81 µg/m3 10.76 °C N/A 1,011.73 mbar 0.64 m/s 306.7 Deg N/A
2022-01-15 08:00 N/A 39.61 µg/m3 2.61 µg/m3 8.14 °C N/A 1,011.88 mbar 0.35 m/s 314.96 Deg N/A
2022-01-15 07:00 N/A 43.21 µg/m3 0.91 µg/m3 7.25 °C N/A 1,011.68 mbar 0.34 m/s 304.91 Deg N/A
2022-01-15 06:00 N/A 40.29 µg/m3 2.14 µg/m3 7.16 °C N/A 1,011.45 mbar 0.42 m/s 292.28 Deg N/A
2022-01-15 05:00 N/A 49.43 µg/m3 1.97 µg/m3 7.72 °C N/A 1,011.76 mbar 0.54 m/s 292.5 Deg N/A
2022-01-15 04:00 N/A 51.71 µg/m3 2.31 µg/m3 7.37 °C N/A 1,012.34 mbar 0.42 m/s 288.38 Deg N/A
2022-01-15 03:00 N/A 50.46 µg/m3 3.33 µg/m3 7.3 °C N/A 1,012.96 mbar 0.63 m/s 284.15 Deg N/A
2022-01-15 02:00 N/A 41.82 µg/m3 4.43 µg/m3 7.27 °C N/A 1,013.27 mbar 0.22 m/s 302.57 Deg N/A
2022-01-15 01:00 N/A 61.69 µg/m3 5.03 µg/m3 7.96 °C N/A 1,013.42 mbar 0.31 m/s 296 Deg N/A
2022-01-15 00:00 N/A 55.21 µg/m3 11.94 µg/m3 8.18 °C N/A 1,014.16 mbar 0.57 m/s 298.88 Deg N/A
2022-01-14 23:00 N/A 64.88 µg/m3 11.03 µg/m3 8.55 °C N/A 1,014.72 mbar 0.47 m/s 300.06 Deg N/A
2022-01-14 22:00 N/A 65.82 µg/m3 10.86 µg/m3 8.88 °C N/A 1,014.96 mbar 0.61 m/s 306.77 Deg N/A
2022-01-14 21:00 N/A 52.07 µg/m3 8.42 µg/m3 8.89 °C N/A 1,015.09 mbar 0.4 m/s 322.35 Deg N/A
2022-01-14 20:00 N/A 51.59 µg/m3 7.38 µg/m3 9.75 °C N/A 1,015.03 mbar 0.6 m/s 342.44 Deg N/A
2022-01-14 19:00 N/A 43.83 µg/m3 6.26 µg/m3 10.67 °C N/A 1,014.85 mbar 0.4 m/s 237.93 Deg N/A
2022-01-14 18:00 N/A 66.72 µg/m3 5.7 µg/m3 11.6 °C N/A 1,014.55 mbar 1.08 m/s 41.7 Deg N/A
2022-01-14 17:00 N/A 74.49 µg/m3 5.26 µg/m3 12.02 °C N/A 1,014.43 mbar 1.57 m/s 41.92 Deg N/A
2022-01-14 16:00 N/A 77.95 µg/m3 4.56 µg/m3 12.5 °C N/A 1,014.54 mbar 2.12 m/s 101.5 Deg N/A
2022-01-14 15:00 N/A 77.52 µg/m3 4.94 µg/m3 12.71 °C N/A 1,014.56 mbar 2.73 m/s 107.42 Deg N/A
2022-01-14 14:00 N/A 78.33 µg/m3 5 µg/m3 12.39 °C N/A 1,014.93 mbar 2.8 m/s 191.77 Deg N/A
2022-01-14 13:00 N/A 76.66 µg/m3 4.01 µg/m3 12.49 °C N/A 1,015.55 mbar 2.63 m/s 267.9 Deg N/A
2022-01-14 12:00 N/A 77.3 µg/m3 5.6 µg/m3 12.4 °C N/A 1,016.02 mbar 3.2 m/s 238.22 Deg N/A
2022-01-14 11:00 N/A 73.69 µg/m3 4.58 µg/m3 12.37 °C N/A 1,016.19 mbar 2.89 m/s 291.82 Deg N/A
2022-01-14 10:00 N/A 71.46 µg/m3 3.45 µg/m3 12.04 °C N/A 1,016.00 mbar 2.75 m/s 299.18 Deg N/A
2022-01-14 09:00 N/A 67.97 µg/m3 3.77 µg/m3 11.86 °C N/A 1,015.78 mbar 2.83 m/s 259.68 Deg N/A
2022-01-14 08:00 N/A 71.11 µg/m3 4.07 µg/m3 11.62 °C N/A 1,015.70 mbar 3.01 m/s 330.18 Deg N/A
2022-01-14 07:00 N/A 76.96 µg/m3 3.03 µg/m3 11.48 °C N/A 1,015.53 mbar 2.94 m/s 257.27 Deg N/A
2022-01-14 06:00 N/A 81.12 µg/m3 3.82 µg/m3 11.4 °C N/A 1,015.44 mbar 3.19 m/s 337.23 Deg N/A
2022-01-14 05:00 N/A 83.19 µg/m3 4.32 µg/m3 11.4 °C N/A 1,015.56 mbar 3.55 m/s 247.35 Deg N/A
2022-01-14 04:00 N/A 83.75 µg/m3 3.54 µg/m3 11.27 °C N/A 1,015.85 mbar 3.25 m/s 296.62 Deg N/A
2022-01-14 03:00 N/A 83.25 µg/m3 5.87 µg/m3 11 °C N/A 1,015.96 mbar 3.26 m/s 107.55 Deg N/A
2022-01-14 02:00 N/A 82.74 µg/m3 5.15 µg/m3 11.25 °C N/A 1,015.76 mbar 3.46 m/s 317.73 Deg N/A
2022-01-14 01:00 N/A 81.49 µg/m3 4.18 µg/m3 11.56 °C N/A 1,015.74 mbar 3.2 m/s 306.12 Deg N/A
2022-01-14 00:00 N/A 80.21 µg/m3 4.73 µg/m3 11.71 °C N/A 1,015.90 mbar 3.36 m/s 221.32 Deg N/A
2022-01-13 23:00 N/A 79.39 µg/m3 5.09 µg/m3 11.81 °C N/A 1,015.99 mbar 2.76 m/s 281.23 Deg N/A
2022-01-13 22:00 N/A 77.83 µg/m3 6.15 µg/m3 11.72 °C N/A 1,015.91 mbar 2.73 m/s 249.68 Deg N/A
2022-01-13 21:00 N/A 77.25 µg/m3 5.22 µg/m3 11.72 °C N/A 1,015.67 mbar 2.73 m/s 273.13 Deg N/A
2022-01-13 20:00 N/A 76.5 µg/m3 4.54 µg/m3 11.89 °C N/A 1,015.18 mbar 3.24 m/s 264.35 Deg N/A
2022-01-13 19:00 N/A 73.26 µg/m3 5.09 µg/m3 12.03 °C N/A 1,014.66 mbar 2.92 m/s 261.12 Deg N/A
2022-01-13 18:00 N/A 71.11 µg/m3 5.3 µg/m3 12.18 °C N/A 1,014.05 mbar 3.07 m/s 247 Deg N/A
2022-01-13 17:00 N/A 72.93 µg/m3 5.81 µg/m3 12.33 °C N/A 1,013.62 mbar 3.28 m/s 252.53 Deg N/A
2022-01-13 16:00 N/A 73.16 µg/m3 6.43 µg/m3 12.47 °C N/A 1,013.24 mbar 3.83 m/s 264.13 Deg N/A
2022-01-13 15:00 N/A 70.09 µg/m3 6.13 µg/m3 12.52 °C N/A 1,012.83 mbar 3.82 m/s 257.58 Deg N/A
2022-01-13 14:00 N/A 69.09 µg/m3 7.44 µg/m3 12.45 °C N/A 1,012.63 mbar 4.07 m/s 254.08 Deg N/A
2022-01-13 13:00 N/A 65.54 µg/m3 7.17 µg/m3 12.2 °C N/A 1,012.82 mbar 3.21 m/s 236.89 Deg N/A
2022-01-13 12:00 N/A 63.86 µg/m3 4.3 µg/m3 12.61 °C N/A 1,012.85 mbar 3.81 m/s 207 Deg N/A
2022-01-13 11:00 N/A 62.13 µg/m3 4.26 µg/m3 12.79 °C N/A 1,012.93 mbar 4.03 m/s 209.72 Deg N/A
2022-01-13 10:00 N/A 55.49 µg/m3 3.07 µg/m3 11.82 °C N/A 1,012.47 mbar 3.33 m/s 270.2 Deg N/A
2022-01-13 09:00 N/A 44.25 µg/m3 4.11 µg/m3 11.91 °C N/A 1,011.70 mbar 2.11 m/s 256.1 Deg N/A
2022-01-13 08:00 N/A 16.3 µg/m3 2.71 µg/m3 10.55 °C N/A 1,011.24 mbar 1.3 m/s 235.23 Deg N/A
2022-01-13 07:00 N/A 28.93 µg/m3 1.63 µg/m3 10.18 °C N/A 1,010.68 mbar 0.64 m/s 273.27 Deg N/A
2022-01-13 06:00 N/A 60.56 µg/m3 0.97 µg/m3 9.78 °C N/A 1,010.39 mbar 1.35 m/s 203.85 Deg N/A
2022-01-13 05:00 N/A 59.55 µg/m3 -0.54 µg/m3 9.63 °C N/A 1,010.14 mbar 1.21 m/s 267.89 Deg N/A
2022-01-13 04:00 N/A 63.02 µg/m3 -0.03 µg/m3 9.91 °C N/A 1,010.33 mbar 1.39 m/s 177.41 Deg N/A
2022-01-13 03:00 N/A 58.18 µg/m3 0.36 µg/m3 9.76 °C N/A 1,010.06 mbar 0.89 m/s 333.03 Deg N/A
2022-01-13 02:00 N/A 59.53 µg/m3 0.5 µg/m3 9.99 °C N/A 1,009.94 mbar 1.01 m/s 338.9 Deg N/A
2022-01-13 01:00 N/A 58.45 µg/m3 2.97 µg/m3 9.6 °C N/A 1,009.83 mbar 0.96 m/s 343.49 Deg N/A
2022-01-13 00:00 N/A 56.98 µg/m3 2.56 µg/m3 9.71 °C N/A 1,009.72 mbar 0.72 m/s 306.63 Deg N/A
2022-01-12 23:00 N/A 59.26 µg/m3 3.56 µg/m3 10.17 °C N/A 1,009.59 mbar 0.83 m/s 104.72 Deg N/A
2022-01-12 22:00 N/A 52.92 µg/m3 5.62 µg/m3 10.54 °C N/A 1,009.13 mbar 0.61 m/s 264.74 Deg N/A
2022-01-12 21:00 N/A 49.91 µg/m3 6.72 µg/m3 10.89 °C N/A 1,008.73 mbar 0.7 m/s 103.26 Deg N/A
2022-01-12 20:00 N/A 50.38 µg/m3 6.53 µg/m3 10.95 °C N/A 1,008.10 mbar 0.93 m/s 297.58 Deg N/A
2022-01-12 19:00 N/A 54.04 µg/m3 7.81 µg/m3 11.15 °C N/A 1,007.46 mbar 1.33 m/s 255.07 Deg N/A
2022-01-12 18:00 N/A 37.52 µg/m3 7.38 µg/m3 12.42 °C N/A 1,006.60 mbar 0.87 m/s 178.23 Deg N/A
2022-01-12 17:00 N/A 32.22 µg/m3 6.57 µg/m3 12.63 °C N/A 1,005.92 mbar 1.47 m/s 157.25 Deg N/A
2022-01-12 16:00 N/A 50.11 µg/m3 6.21 µg/m3 12.86 °C N/A 1,005.54 mbar 2.13 m/s 161.9 Deg N/A
2022-01-12 15:00 N/A 49.06 µg/m3 4.75 µg/m3 13.58 °C N/A 1,005.07 mbar 1.81 m/s 189.08 Deg N/A
2022-01-12 14:00 N/A 61.73 µg/m3 4.79 µg/m3 14.11 °C N/A 1,004.90 mbar 1.81 m/s 31.58 Deg N/A
2022-01-12 13:00 N/A 61.43 µg/m3 5.92 µg/m3 14.34 °C N/A 1,004.85 mbar 1.64 m/s 24.87 Deg N/A
2022-01-12 12:00 N/A 56.28 µg/m3 5.03 µg/m3 14.73 °C N/A 1,004.88 mbar 1.5 m/s 15.08 Deg N/A
2022-01-12 11:00 N/A 57.3 µg/m3 10.03 µg/m3 14.69 °C N/A 1,004.96 mbar 1.37 m/s 101.66 Deg N/A
2022-01-12 10:00 N/A 30.5 µg/m3 12.6 µg/m3 14.25 °C N/A 1,004.45 mbar 0.95 m/s 17.97 Deg N/A
2022-01-12 09:00 N/A 6.14 µg/m3 9.04 µg/m3 12.21 °C N/A 1,003.86 mbar 0.3 m/s 324.05 Deg N/A
2022-01-12 08:00 N/A 3.64 µg/m3 6.23 µg/m3 10.17 °C N/A 1,003.27 mbar 0.35 m/s 324 Deg N/A
2022-01-12 07:00 N/A 14.18 µg/m3 3.62 µg/m3 9.7 °C N/A 1,002.75 mbar 0.41 m/s 297.77 Deg N/A
2022-01-12 06:00 N/A 41.33 µg/m3 2.41 µg/m3 9.85 °C N/A 1,002.17 mbar 0.42 m/s 325.17 Deg N/A
2022-01-12 05:00 N/A 43.14 µg/m3 3.14 µg/m3 9.84 °C N/A 1,001.84 mbar 0.33 m/s 306.79 Deg N/A
2022-01-12 04:00 N/A 43.77 µg/m3 3.05 µg/m3 10.17 °C N/A 1,001.71 mbar 0.48 m/s 323.82 Deg N/A
2022-01-12 03:00 N/A 42.58 µg/m3 2.22 µg/m3 10.42 °C N/A 1,001.79 mbar 0.42 m/s 329.12 Deg N/A
2022-01-12 02:00 N/A 47.59 µg/m3 2.63 µg/m3 10.88 °C N/A 1,001.41 mbar 0.78 m/s 351.2 Deg N/A
2022-01-12 01:00 N/A 55.1 µg/m3 2.58 µg/m3 11.43 °C N/A 1,001.13 mbar 0.74 m/s 330.52 Deg N/A
2022-01-12 00:00 N/A 58.71 µg/m3 3.84 µg/m3 12.02 °C N/A 1,000.92 mbar 0.89 m/s 242.34 Deg N/A
2022-01-11 23:00 N/A 61.1 µg/m3 4.92 µg/m3 12.29 °C N/A 1,000.57 mbar 1.58 m/s 97.03 Deg N/A
2022-01-11 22:00 N/A 59.07 µg/m3 3.79 µg/m3 11.99 °C N/A 999.91 mbar 0.94 m/s 257.01 Deg N/A
2022-01-11 21:00 N/A 60.01 µg/m3 4.56 µg/m3 12.31 °C N/A 999.39 mbar 1.15 m/s 261.45 Deg N/A
2022-01-11 20:00 N/A 57.49 µg/m3 4.52 µg/m3 12.61 °C N/A 998.67 mbar 1.47 m/s 263.48 Deg N/A
2022-01-11 19:00 N/A 60.03 µg/m3 4.3 µg/m3 12.99 °C N/A 998.14 mbar 1.79 m/s 264.2 Deg N/A
2022-01-11 18:00 N/A 61.37 µg/m3 3.2 µg/m3 13.05 °C N/A 997.34 mbar 1.81 m/s 262.88 Deg N/A
2022-01-11 17:00 N/A 64.83 µg/m3 3.6 µg/m3 13.47 °C N/A 996.71 mbar 1.99 m/s 91.23 Deg N/A
2022-01-11 16:00 N/A 67.32 µg/m3 3.41 µg/m3 13.94 °C N/A 996.27 mbar 2.65 m/s 354.52 Deg N/A
2022-01-11 15:00 N/A 68.05 µg/m3 2.82 µg/m3 14.11 °C N/A 995.78 mbar 2.65 m/s 92.85 Deg N/A
2022-01-11 14:00 N/A 68.21 µg/m3 2.92 µg/m3 13.78 °C N/A 995.29 mbar 2.94 m/s 15.8 Deg N/A
2022-01-11 13:00 N/A 66.88 µg/m3 2.69 µg/m3 13.84 °C N/A 995.02 mbar 3.01 m/s 184.18 Deg N/A
2022-01-11 12:00 N/A 63.79 µg/m3 2.84 µg/m3 13.88 °C N/A 995.14 mbar 2.6 m/s 95.88 Deg N/A
2022-01-11 11:00 N/A 63.01 µg/m3 2.8 µg/m3 13.16 °C N/A 995.06 mbar 2.5 m/s 6.08 Deg N/A
2022-01-11 10:00 N/A 61.36 µg/m3 1.23 µg/m3 12.29 °C N/A 994.44 mbar 2.77 m/s 175.67 Deg N/A
2022-01-11 09:00 N/A 59.99 µg/m3 1.23 µg/m3 11.55 °C N/A 993.60 mbar 2.31 m/s 8.83 Deg N/A
2022-01-11 08:00 N/A 56.24 µg/m3 2.16 µg/m3 10.48 °C N/A 992.74 mbar 1.82 m/s 257.65 Deg N/A
2022-01-11 07:00 N/A 59.9 µg/m3 1.78 µg/m3 10.06 °C N/A 992.12 mbar 1.32 m/s 348.55 Deg N/A
2022-01-11 06:00 N/A 68.44 µg/m3 1.88 µg/m3 10.24 °C N/A 991.57 mbar 1.41 m/s 341.38 Deg N/A
2022-01-11 05:00 N/A 71.98 µg/m3 2.31 µg/m3 10.41 °C N/A 991.39 mbar 1.3 m/s 339.6 Deg N/A
2022-01-11 04:00 N/A 71.96 µg/m3 2.22 µg/m3 10.3 °C N/A 991.38 mbar 1.15 m/s 343.98 Deg N/A
2022-01-11 03:00 N/A 73.66 µg/m3 1.9 µg/m3 10.26 °C N/A 991.30 mbar 1.32 m/s 335.66 Deg N/A
2022-01-11 02:00 N/A 74.82 µg/m3 1.88 µg/m3 10.52 °C N/A 990.80 mbar 1.7 m/s 338.64 Deg N/A
2022-01-11 01:00 N/A 74.75 µg/m3 1.14 µg/m3 10.35 °C N/A 990.70 mbar 1.27 m/s 339.15 Deg N/A
2022-01-11 00:00 N/A 74.8 µg/m3 1.14 µg/m3 10.46 °C N/A 990.49 mbar 1.45 m/s 252.78 Deg N/A
2022-01-10 23:00 N/A 75.98 µg/m3 0.78 µg/m3 10.69 °C N/A 989.97 mbar 1.72 m/s 242.6 Deg N/A
2022-01-10 22:00 N/A 76.4 µg/m3 0.44 µg/m3 10.92 °C N/A 989.50 mbar 2.36 m/s 341.73 Deg N/A
2022-01-10 21:00 N/A 74.16 µg/m3 0.5 µg/m3 10.97 °C N/A 989.40 mbar 2.01 m/s 345.18 Deg N/A
2022-01-10 20:00 N/A 74.89 µg/m3 0.61 µg/m3 10.97 °C N/A 989.05 mbar 2.14 m/s 346.28 Deg N/A
2022-01-10 19:00 N/A 74.63 µg/m3 1.97 µg/m3 10.92 °C N/A 988.59 mbar 2.96 m/s 176.03 Deg N/A
2022-01-10 18:00 N/A 76.1 µg/m3 1.2 µg/m3 11 °C N/A 987.84 mbar 3.12 m/s 263.17 Deg N/A
2022-01-10 17:00 N/A 75.91 µg/m3 1.06 µg/m3 11.17 °C N/A 987.00 mbar 2.9 m/s 333.17 Deg N/A
2022-01-10 16:00 N/A 75.84 µg/m3 0.89 µg/m3 11.68 °C N/A 986.33 mbar 3.58 m/s 342.13 Deg N/A
2022-01-10 15:00 N/A 74.66 µg/m3 3.41 µg/m3 12.06 °C N/A 985.95 mbar 3.48 m/s 348.82 Deg N/A
2022-01-10 14:00 N/A 75.61 µg/m3 4.15 µg/m3 12.36 °C N/A 986.09 mbar 3.3 m/s 341.1 Deg N/A
2022-01-10 13:00 N/A 76.51 µg/m3 3.22 µg/m3 12.26 °C N/A 986.41 mbar 3.11 m/s 335.62 Deg N/A
2022-01-10 12:00 N/A 74.98 µg/m3 2.29 µg/m3 11.77 °C N/A 987.31 mbar 2.29 m/s 338.8 Deg N/A
2022-01-10 11:00 N/A 74.8 µg/m3 0.36 µg/m3 12.25 °C N/A 987.78 mbar 2.6 m/s 265.87 Deg N/A
2022-01-10 10:00 N/A 71.58 µg/m3 0.48 µg/m3 11.36 °C N/A 988.03 mbar 2.51 m/s 250.15 Deg N/A
2022-01-10 09:00 N/A 72.29 µg/m3 -0.11 µg/m3 9.31 °C N/A 988.15 mbar 2.1 m/s 335.55 Deg N/A
2022-01-10 08:00 N/A 71.67 µg/m3 -1.15 µg/m3 9.6 °C N/A 987.98 mbar 1.97 m/s 319.33 Deg N/A
2022-01-10 07:00 N/A 72.63 µg/m3 -0.71 µg/m3 8.8 °C N/A 988.35 mbar 1.33 m/s 333.92 Deg N/A
2022-01-10 06:00 N/A 79.6 µg/m3 -4.36 µg/m3 9.01 °C N/A 989.05 mbar 1.83 m/s 338.72 Deg N/A
2022-01-10 05:00 N/A 81.37 µg/m3 -2.09 µg/m3 9.78 °C N/A 989.53 mbar 2.55 m/s 326.69 Deg N/A
2022-01-10 04:00 N/A 80.76 µg/m3 2.73 µg/m3 9.51 °C N/A 990.32 mbar 1.27 m/s 326.06 Deg N/A
2022-01-10 03:00 N/A 82.45 µg/m3 5.53 µg/m3 10.65 °C N/A 991.21 mbar 2.66 m/s 311.83 Deg N/A
2022-01-10 02:00 N/A 82.68 µg/m3 2.82 µg/m3 10.31 °C N/A 992.23 mbar 2.23 m/s 323.47 Deg N/A
2022-01-10 01:00 N/A 83.73 µg/m3 0.27 µg/m3 11.52 °C N/A 992.67 mbar 2.73 m/s 305.03 Deg N/A
2022-01-10 00:00 N/A 84.13 µg/m3 -0.98 µg/m3 12.44 °C N/A 993.50 mbar 3.4 m/s 308.22 Deg N/A
2022-01-09 23:00 N/A 83.8 µg/m3 1.76 µg/m3 11.66 °C N/A 994.33 mbar 2.45 m/s 304.57 Deg N/A
2022-01-09 22:00 N/A 83.51 µg/m3 3.58 µg/m3 10.88 °C N/A 995.10 mbar 2.03 m/s 306.19 Deg N/A
2022-01-09 21:00 N/A 83.57 µg/m3 2.46 µg/m3 12.5 °C N/A 995.30 mbar 3.07 m/s 320.7 Deg N/A
2022-01-09 20:00 N/A 80.44 µg/m3 4.66 µg/m3 12.78 °C N/A 995.53 mbar 2.11 m/s 321.79 Deg N/A
2022-01-09 19:00 N/A 79.88 µg/m3 3.84 µg/m3 13.7 °C N/A 995.78 mbar 2.56 m/s 313.87 Deg N/A
2022-01-09 18:00 N/A 79.69 µg/m3 4.66 µg/m3 13.65 °C N/A 995.85 mbar 2.69 m/s 316.18 Deg N/A
2022-01-09 17:00 N/A 80.74 µg/m3 3.86 µg/m3 13.67 °C N/A 996.04 mbar 2.61 m/s 319.08 Deg N/A
2022-01-09 16:00 N/A 80.1 µg/m3 3.88 µg/m3 13.79 °C N/A 996.27 mbar 2.3 m/s 314.31 Deg N/A
2022-01-09 15:00 N/A 78.29 µg/m3 1.67 µg/m3 14 °C N/A 996.59 mbar 2.49 m/s 318.17 Deg N/A
2022-01-09 14:00 N/A 78.6 µg/m3 2.48 µg/m3 14.56 °C N/A 997.26 mbar 2.89 m/s 337.07 Deg N/A
2022-01-09 13:00 N/A 77.41 µg/m3 3.77 µg/m3 14.88 °C N/A 997.82 mbar 3.3 m/s 337.25 Deg N/A
2022-01-09 12:00 N/A 72.29 µg/m3 2.18 µg/m3 14.78 °C N/A 998.62 mbar 2.45 m/s 335.08 Deg N/A
2022-01-09 11:00 N/A 69.57 µg/m3 1.95 µg/m3 14.07 °C N/A 999.44 mbar 2.23 m/s 342.17 Deg N/A
2022-01-09 10:00 N/A 69.47 µg/m3 1.57 µg/m3 13.53 °C N/A 999.52 mbar 2.36 m/s 254.8 Deg N/A
2022-01-09 09:00 N/A 68.81 µg/m3 1.59 µg/m3 12.46 °C N/A 999.42 mbar 1.73 m/s 350.12 Deg N/A
2022-01-09 08:00 N/A 72.41 µg/m3 -0.13 µg/m3 11.76 °C N/A 999.41 mbar 1.78 m/s 348.15 Deg N/A
2022-01-09 07:00 N/A 73.14 µg/m3 0.55 µg/m3 11.44 °C N/A 999.15 mbar 1.97 m/s 264.72 Deg N/A
2022-01-09 06:00 N/A 76.82 µg/m3 0.08 µg/m3 11.47 °C N/A 998.87 mbar 2.64 m/s 178.23 Deg N/A
2022-01-09 05:00 N/A 77.81 µg/m3 -0.22 µg/m3 11.4 °C N/A 998.72 mbar 2.53 m/s 264.35 Deg N/A
2022-01-09 04:00 N/A 80.51 µg/m3 -0.15 µg/m3 11.46 °C N/A 998.68 mbar 2.79 m/s 352.65 Deg N/A
2022-01-09 03:00 N/A 77.45 µg/m3 0.38 µg/m3 11.21 °C N/A 998.72 mbar 1.76 m/s 262.35 Deg N/A
2022-01-09 02:00 N/A 75.82 µg/m3 0.1 µg/m3 11.15 °C N/A 998.81 mbar 1.75 m/s 343.72 Deg N/A
2022-01-09 01:00 N/A 75.53 µg/m3 -0.11 µg/m3 11.19 °C N/A 998.89 mbar 1.47 m/s 342.75 Deg N/A
2022-01-09 00:00 N/A 74.6 µg/m3 0.38 µg/m3 11.42 °C N/A 999.01 mbar 1.74 m/s 256.82 Deg N/A
2022-01-08 23:00 N/A 74.07 µg/m3 1.12 µg/m3 11.82 °C N/A 998.95 mbar 2.26 m/s 94.55 Deg N/A
2022-01-08 22:00 N/A 75.33 µg/m3 0.86 µg/m3 12.1 °C N/A 998.84 mbar 3.1 m/s 181.98 Deg N/A
2022-01-08 21:00 N/A 72.48 µg/m3 0.27 µg/m3 12.06 °C N/A 998.75 mbar 2.58 m/s 264.8 Deg N/A
2022-01-08 20:00 N/A 69.53 µg/m3 1.52 µg/m3 12.02 °C N/A 998.39 mbar 1.92 m/s 349.57 Deg N/A
2022-01-08 19:00 N/A 70.59 µg/m3 0.97 µg/m3 12.23 °C N/A 998.12 mbar 2.19 m/s 181.35 Deg N/A
2022-01-08 18:00 N/A 72.1 µg/m3 0.57 µg/m3 12.51 °C N/A 997.88 mbar 2.9 m/s 98 Deg N/A
2022-01-08 17:00 N/A 71.45 µg/m3 2.33 µg/m3 13.04 °C N/A 997.29 mbar 3.01 m/s 7.35 Deg N/A
2022-01-08 16:00 N/A 72.33 µg/m3 2.35 µg/m3 13.47 °C N/A 997.15 mbar 2.55 m/s 265.93 Deg N/A
2022-01-08 15:00 N/A 72.96 µg/m3 1.52 µg/m3 13.39 °C N/A 997.23 mbar 2.78 m/s 92.37 Deg N/A
2022-01-08 14:00 N/A 71.95 µg/m3 3.03 µg/m3 13.86 °C N/A 997.16 mbar 2.91 m/s 345.22 Deg N/A
2022-01-08 13:00 N/A 72.13 µg/m3 2.9 µg/m3 13.94 °C N/A 997.56 mbar 3.2 m/s 340.6 Deg N/A
2022-01-08 12:00 N/A 69.4 µg/m3 3.69 µg/m3 14.43 °C N/A 998.03 mbar 2.51 m/s 340.92 Deg N/A
2022-01-08 11:00 N/A 69.29 µg/m3 2.37 µg/m3 14.02 °C N/A 998.67 mbar 2.99 m/s 346.65 Deg N/A
2022-01-08 10:00 N/A 67.64 µg/m3 2.39 µg/m3 13.42 °C N/A 998.82 mbar 2.42 m/s 337.58 Deg N/A
2022-01-08 09:00 N/A 68.06 µg/m3 1.82 µg/m3 12.91 °C N/A 998.63 mbar 2.33 m/s 345.12 Deg N/A
2022-01-08 08:00 N/A 67.24 µg/m3 0.29 µg/m3 12.72 °C N/A 998.48 mbar 2.08 m/s 266.37 Deg N/A
2022-01-08 07:00 N/A 68.49 µg/m3 1.78 µg/m3 12.85 °C N/A 998.42 mbar 2.05 m/s 345.05 Deg N/A
2022-01-08 06:00 N/A 69.96 µg/m3 2.99 µg/m3 12.7 °C N/A 998.15 mbar 2.25 m/s 258.37 Deg N/A
2022-01-08 05:00 N/A 69.82 µg/m3 1.65 µg/m3 12.47 °C N/A 997.83 mbar 2.04 m/s 345.93 Deg N/A
2022-01-08 04:00 N/A 68.73 µg/m3 1.9 µg/m3 12.65 °C N/A 998.00 mbar 2.02 m/s 347.55 Deg N/A
2022-01-08 03:00 N/A 66.17 µg/m3 1.01 µg/m3 12.78 °C N/A 998.30 mbar 2.06 m/s 344.33 Deg N/A
2022-01-08 02:00 N/A 65.03 µg/m3 1.71 µg/m3 12.76 °C N/A 998.32 mbar 1.57 m/s 348.87 Deg N/A
2022-01-08 01:00 N/A 68.5 µg/m3 1.44 µg/m3 12.54 °C N/A 998.40 mbar 1.55 m/s 342.65 Deg N/A
2022-01-08 00:00 N/A 68.4 µg/m3 0.21 µg/m3 12.65 °C N/A 998.56 mbar 2.07 m/s 265.1 Deg N/A
2022-01-07 23:00 N/A 63.16 µg/m3 2.03 µg/m3 12.64 °C N/A 998.71 mbar 1.61 m/s 351.28 Deg N/A
2022-01-07 22:00 N/A 59.6 µg/m3 1.99 µg/m3 12.46 °C N/A 998.61 mbar 1.08 m/s 343.94 Deg N/A
2022-01-07 21:00 N/A 62.48 µg/m3 2.05 µg/m3 12.37 °C N/A 998.62 mbar 1.22 m/s 348.7 Deg N/A
2022-01-07 20:00 N/A 66.63 µg/m3 2.22 µg/m3 12.44 °C N/A 998.61 mbar 1.75 m/s 12.48 Deg N/A
2022-01-07 19:00 N/A 70.86 µg/m3 2.44 µg/m3 12.23 °C N/A 998.41 mbar 2.75 m/s 17.97 Deg N/A
2022-01-07 18:00 N/A 68.12 µg/m3 1.74 µg/m3 12.33 °C N/A 997.77 mbar 2.56 m/s 106.45 Deg N/A
2022-01-07 17:00 N/A 67.34 µg/m3 1.03 µg/m3 12.6 °C N/A 997.65 mbar 2.33 m/s 350.98 Deg N/A
2022-01-07 16:00 N/A 68.73 µg/m3 0.57 µg/m3 12.43 °C N/A 997.43 mbar 2.42 m/s 265.46 Deg N/A
2022-01-07 15:00 N/A 66.09 µg/m3 1.42 µg/m3 12.3 °C N/A 997.39 mbar 2.05 m/s 349.95 Deg N/A
2022-01-07 14:00 N/A 67.09 µg/m3 2.5 µg/m3 12.26 °C N/A 997.34 mbar 1.76 m/s 264.9 Deg N/A
2022-01-07 13:00 N/A 66.54 µg/m3 2.75 µg/m3 11.84 °C N/A 997.80 mbar 1.82 m/s 264.1 Deg N/A
2022-01-07 12:00 N/A 61.54 µg/m3 3.39 µg/m3 11.37 °C N/A 998.32 mbar 1.17 m/s 252.39 Deg N/A
2022-01-07 11:00 N/A 66.41 µg/m3 3.16 µg/m3 10.61 °C N/A 998.93 mbar 1.14 m/s 332.45 Deg N/A
2022-01-07 10:00 N/A 65.57 µg/m3 2.44 µg/m3 11.95 °C N/A 998.59 mbar 1.65 m/s 102.2 Deg N/A
2022-01-07 09:00 N/A 55.59 µg/m3 2.88 µg/m3 12.41 °C N/A 998.21 mbar 1.62 m/s 264.16 Deg N/A
2022-01-07 08:00 N/A 56.33 µg/m3 2.14 µg/m3 12.34 °C N/A 998.17 mbar 1.29 m/s 339.72 Deg N/A
2022-01-07 07:00 N/A 58.15 µg/m3 3.79 µg/m3 12.33 °C N/A 997.82 mbar 1.12 m/s 270.22 Deg N/A
2022-01-07 06:00 N/A 62.2 µg/m3 3.31 µg/m3 12.36 °C N/A 997.63 mbar 1.3 m/s 266.7 Deg N/A
2022-01-07 05:00 N/A 67.13 µg/m3 2.1 µg/m3 12.64 °C N/A 997.58 mbar 1.9 m/s 17.83 Deg N/A
2022-01-07 04:00 N/A 66.47 µg/m3 2.27 µg/m3 12.96 °C N/A 997.78 mbar 1.66 m/s 97.37 Deg N/A
2022-01-07 03:00 N/A 67.44 µg/m3 3.24 µg/m3 12.41 °C N/A 998.09 mbar 1.19 m/s 353.44 Deg N/A
2022-01-07 02:00 N/A 67.6 µg/m3 2.82 µg/m3 12.45 °C N/A 998.21 mbar 1.41 m/s 342.57 Deg N/A
2022-01-07 01:00 N/A 68.4 µg/m3 1.88 µg/m3 12.44 °C N/A 998.43 mbar 1.5 m/s 264.31 Deg N/A
2022-01-07 00:00 N/A 73.47 µg/m3 3.56 µg/m3 13.16 °C N/A 998.66 mbar 1.99 m/s 263.85 Deg N/A
2022-01-06 23:00 N/A 74.57 µg/m3 3.24 µg/m3 13.6 °C N/A 998.61 mbar 2.27 m/s 7.33 Deg N/A
2022-01-06 22:00 N/A 75.4 µg/m3 3.37 µg/m3 13.52 °C N/A 998.31 mbar 2.66 m/s 14.23 Deg N/A
2022-01-06 21:00 N/A 73.9 µg/m3 4.15 µg/m3 13.71 °C N/A 998.00 mbar 2.59 m/s 14.95 Deg N/A
2022-01-06 20:00 N/A 66.93 µg/m3 5.19 µg/m3 14.13 °C N/A 997.86 mbar 2.17 m/s 35.4 Deg N/A
2022-01-06 19:00 N/A 68.1 µg/m3 5.53 µg/m3 14.04 °C N/A 997.62 mbar 2.06 m/s 27.09 Deg N/A
2022-01-06 18:00 N/A 70.21 µg/m3 6.26 µg/m3 14.3 °C N/A 997.20 mbar 1.75 m/s 44.9 Deg N/A
2022-01-06 17:00 N/A 67.37 µg/m3 5.47 µg/m3 14.82 °C N/A 996.85 mbar 1.49 m/s 174.6 Deg N/A
2022-01-06 16:00 N/A 69.84 µg/m3 6.09 µg/m3 15.53 °C N/A 996.66 mbar 1.58 m/s 163.75 Deg N/A
2022-01-06 15:00 N/A 66.54 µg/m3 7.23 µg/m3 15.54 °C N/A 996.83 mbar 1.52 m/s 185.5 Deg N/A
2022-01-06 14:00 N/A 63.22 µg/m3 9.61 µg/m3 16.15 °C N/A 996.86 mbar 1.65 m/s 154.65 Deg N/A
2022-01-06 13:00 N/A 64.5 µg/m3 7.44 µg/m3 15.81 °C N/A 997.39 mbar 1.81 m/s 160.63 Deg N/A
2022-01-06 12:00 N/A 65.14 µg/m3 6.43 µg/m3 15.55 °C N/A 998.21 mbar 1.4 m/s 180.57 Deg N/A
2022-01-06 11:00 N/A 67.52 µg/m3 8.89 µg/m3 15.07 °C N/A 998.92 mbar 1.35 m/s 251.55 Deg N/A
2022-01-06 10:00 N/A 34.15 µg/m3 12.07 µg/m3 14.44 °C N/A 999.39 mbar 0.71 m/s 100 Deg N/A
2022-01-06 09:00 N/A 5.08 µg/m3 13.75 µg/m3 12.99 °C N/A 999.35 mbar 0.39 m/s 90.47 Deg N/A
2022-01-06 08:00 N/A 2 µg/m3 7.3 µg/m3 11.27 °C N/A 999.36 mbar 0.31 m/s 309.76 Deg N/A
2022-01-06 07:00 N/A 8.03 µg/m3 3.45 µg/m3 10.94 °C N/A 999.55 mbar 0.41 m/s 294.25 Deg N/A
2022-01-06 06:00 N/A 17.73 µg/m3 3.75 µg/m3 11.14 °C N/A 999.31 mbar 0.39 m/s 279.73 Deg N/A
2022-01-06 05:00 N/A 45.91 µg/m3 3.45 µg/m3 11.97 °C N/A 999.07 mbar 0.43 m/s 216.25 Deg N/A
2022-01-06 04:00 N/A 62.07 µg/m3 4.09 µg/m3 12.12 °C N/A 999.33 mbar 0.42 m/s 251.27 Deg N/A
2022-01-06 03:00 N/A 64.28 µg/m3 4.3 µg/m3 11.93 °C N/A 999.65 mbar 0.3 m/s 330.78 Deg N/A
2022-01-06 02:00 N/A 61.57 µg/m3 4.47 µg/m3 12.06 °C N/A 999.97 mbar 0.28 m/s 305.36 Deg N/A
2022-01-06 01:00 N/A 57.2 µg/m3 7.78 µg/m3 12.38 °C N/A 1,000.13 mbar 0.48 m/s 325.13 Deg N/A
2022-01-06 00:00 N/A 53.51 µg/m3 7.91 µg/m3 12.79 °C N/A 1,000.36 mbar 0.43 m/s 317.92 Deg N/A
2022-01-05 23:00 N/A 58.73 µg/m3 4.54 µg/m3 13.45 °C N/A 1,000.51 mbar 0.61 m/s 288.77 Deg N/A
2022-01-05 22:00 N/A 65.87 µg/m3 5.05 µg/m3 13.78 °C N/A 1,000.40 mbar 1.14 m/s 298.17 Deg N/A
2022-01-05 21:00 N/A 67.37 µg/m3 4.98 µg/m3 14.09 °C N/A 1,000.26 mbar 0.99 m/s 288.98 Deg N/A
2022-01-05 20:00 N/A 74.02 µg/m3 6.32 µg/m3 14.42 °C N/A 1,000.38 mbar 1.54 m/s 291.83 Deg N/A
2022-01-05 19:00 N/A 72.89 µg/m3 5.81 µg/m3 14.65 °C N/A 1,000.14 mbar 1.75 m/s 282.65 Deg N/A
2022-01-05 18:00 N/A 67.38 µg/m3 5.98 µg/m3 15.17 °C N/A 999.81 mbar 1.84 m/s 283.22 Deg N/A
2022-01-05 17:00 N/A 73.04 µg/m3 6.72 µg/m3 16.28 °C N/A 999.64 mbar 1.94 m/s 279.62 Deg N/A
2022-01-05 16:00 N/A 75.11 µg/m3 6.4 µg/m3 17.21 °C N/A 999.45 mbar 2.12 m/s 277.53 Deg N/A
2022-01-05 15:00 N/A 74.77 µg/m3 6.04 µg/m3 17.44 °C N/A 999.20 mbar 3.21 m/s 278.95 Deg N/A
2022-01-05 14:00 N/A 73.23 µg/m3 5.22 µg/m3 17.53 °C N/A 999.57 mbar 3.32 m/s 275.68 Deg N/A
2022-01-05 13:00 N/A 71.9 µg/m3 6.11 µg/m3 17.68 °C N/A 1,000.15 mbar 3.6 m/s 272.83 Deg N/A
2022-01-05 12:00 N/A 70.26 µg/m3 5.79 µg/m3 17.63 °C N/A 1,000.90 mbar 4 m/s 259.87 Deg N/A
2022-01-05 11:00 N/A 69.16 µg/m3 5.49 µg/m3 17.13 °C N/A 1,001.59 mbar 4.27 m/s 253.83 Deg N/A
2022-01-05 10:00 N/A 67.31 µg/m3 3.62 µg/m3 16.65 °C N/A 1,001.78 mbar 4.37 m/s 259.95 Deg N/A
2022-01-05 09:00 N/A 67.19 µg/m3 3.26 µg/m3 15.89 °C N/A 1,001.53 mbar 3.74 m/s 258.02 Deg N/A
2022-01-05 08:00 N/A 68.64 µg/m3 3.28 µg/m3 14.96 °C N/A 1,001.48 mbar 3.79 m/s 269.28 Deg N/A
2022-01-05 07:00 N/A 71.15 µg/m3 3.26 µg/m3 14.75 °C N/A 1,001.59 mbar 3.11 m/s 266.9 Deg N/A
2022-01-05 06:00 N/A 70.44 µg/m3 2.82 µg/m3 14.74 °C N/A 1,001.78 mbar 2.94 m/s 264.73 Deg N/A
2022-01-05 05:00 N/A 72.18 µg/m3 4.71 µg/m3 14.74 °C N/A 1,002.11 mbar 2.25 m/s 256.05 Deg N/A
2022-01-05 04:00 N/A 78.53 µg/m3 4.11 µg/m3 14.85 °C N/A 1,002.86 mbar 1.87 m/s 252.25 Deg N/A
2022-01-05 03:00 N/A 76.42 µg/m3 3.37 µg/m3 14.58 °C N/A 1,003.50 mbar 1.67 m/s 244.25 Deg N/A
2022-01-05 02:00 N/A 74.55 µg/m3 3.77 µg/m3 14.45 °C N/A 1,003.89 mbar 1.7 m/s 251.47 Deg N/A
2022-01-05 01:00 N/A 79.37 µg/m3 5.09 µg/m3 14.28 °C N/A 1,004.07 mbar 1.95 m/s 264.87 Deg N/A
2022-01-05 00:00 N/A 83.44 µg/m3 4.39 µg/m3 14.26 °C N/A 1,004.61 mbar 1.45 m/s 254.03 Deg N/A
2022-01-04 23:00 N/A 79.96 µg/m3 4.54 µg/m3 14.22 °C N/A 1,005.10 mbar 1.42 m/s 249.27 Deg N/A
2022-01-04 22:00 N/A 77 µg/m3 7.06 µg/m3 14.14 °C N/A 1,005.37 mbar 0.75 m/s 208.62 Deg N/A
2022-01-04 21:00 N/A 79.35 µg/m3 9.12 µg/m3 14.27 °C N/A 1,005.65 mbar 1.21 m/s 245.75 Deg N/A
2022-01-04 20:00 N/A 72.77 µg/m3 9.61 µg/m3 14.24 °C N/A 1,005.98 mbar 0.95 m/s 243.29 Deg N/A
2022-01-04 19:00 N/A 65.56 µg/m3 11.41 µg/m3 14.27 °C N/A 1,006.30 mbar 1.02 m/s 259.1 Deg N/A
2022-01-04 18:00 N/A 64.51 µg/m3 16.47 µg/m3 14.7 °C N/A 1,006.42 mbar 0.84 m/s 261.82 Deg N/A
2022-01-04 17:00 N/A 66.31 µg/m3 18.08 µg/m3 15.57 °C N/A 1,006.53 mbar 1.66 m/s 273.28 Deg N/A
2022-01-04 16:00 N/A 71.54 µg/m3 18.5 µg/m3 16.18 °C N/A 1,006.68 mbar 2.01 m/s 271 Deg N/A
2022-01-04 15:00 N/A 72.21 µg/m3 16.97 µg/m3 15.88 °C N/A 1,007.05 mbar 2.37 m/s 264.23 Deg N/A
2022-01-04 14:00 N/A 73.33 µg/m3 11.39 µg/m3 15.7 °C N/A 1,007.59 mbar 2.63 m/s 266.08 Deg N/A
2022-01-04 13:00 N/A 72.96 µg/m3 6.91 µg/m3 15.67 °C N/A 1,008.33 mbar 2.66 m/s 269.55 Deg N/A
2022-01-04 12:00 N/A 68.87 µg/m3 5.41 µg/m3 16.07 °C N/A 1,008.92 mbar 1.89 m/s 300.83 Deg N/A
2022-01-04 11:00 N/A 63.51 µg/m3 3.43 µg/m3 15.77 °C N/A 1,009.51 mbar 1.66 m/s 305.8 Deg N/A
2022-01-04 10:00 N/A 63.39 µg/m3 3.22 µg/m3 15 °C N/A 1,009.72 mbar 1.23 m/s 309.69 Deg N/A
2022-01-04 09:00 N/A 58.87 µg/m3 2.52 µg/m3 13.86 °C N/A 1,009.66 mbar 1.1 m/s 313.82 Deg N/A
2022-01-04 08:00 N/A 61.45 µg/m3 2.69 µg/m3 13.32 °C N/A 1,009.31 mbar 1.14 m/s 329.07 Deg N/A
2022-01-04 07:00 N/A 65.95 µg/m3 1.95 µg/m3 13.24 °C N/A 1,009.24 mbar 1.19 m/s 320.05 Deg N/A
2022-01-04 06:00 N/A 69.09 µg/m3 1.84 µg/m3 13.47 °C N/A 1,009.36 mbar 1.29 m/s 241.89 Deg N/A
2022-01-04 05:00 N/A 66.8 µg/m3 0.95 µg/m3 13.6 °C N/A 1,009.36 mbar 1.07 m/s 321.29 Deg N/A
2022-01-04 04:00 N/A 67.15 µg/m3 0.89 µg/m3 13.49 °C N/A 1,009.78 mbar 1.15 m/s 314.15 Deg N/A
2022-01-04 03:00 N/A 67.46 µg/m3 1.86 µg/m3 13.51 °C N/A 1,010.01 mbar 1.66 m/s 300.85 Deg N/A
2022-01-04 02:00 N/A 68.57 µg/m3 1.4 µg/m3 13.43 °C N/A 1,010.12 mbar 1.25 m/s 315.16 Deg N/A
2022-01-04 01:00 N/A 68.46 µg/m3 2.29 µg/m3 13.42 °C N/A 1,010.27 mbar 1.44 m/s 322.17 Deg N/A
2022-01-04 00:00 N/A 67.97 µg/m3 3.18 µg/m3 13.53 °C N/A 1,010.46 mbar 1.38 m/s 306.68 Deg N/A
2022-01-03 23:00 N/A 66.06 µg/m3 2.84 µg/m3 13.51 °C N/A 1,010.54 mbar 1.61 m/s 328.95 Deg N/A
2022-01-03 22:00 N/A 67.57 µg/m3 1.52 µg/m3 13.86 °C N/A 1,010.70 mbar 1.54 m/s 322.7 Deg N/A
2022-01-03 21:00 N/A 67.84 µg/m3 1.65 µg/m3 13.71 °C N/A 1,010.53 mbar 1.48 m/s 315.52 Deg N/A
2022-01-03 20:00 N/A 68.03 µg/m3 2.14 µg/m3 13.8 °C N/A 1,010.39 mbar 1.54 m/s 326.08 Deg N/A
2022-01-03 19:00 N/A 67.86 µg/m3 2.88 µg/m3 13.92 °C N/A 1,010.45 mbar 1.97 m/s 330.52 Deg N/A
2022-01-03 18:00 N/A 65.49 µg/m3 4.24 µg/m3 13.81 °C N/A 1,010.58 mbar 1.76 m/s 331.4 Deg N/A
2022-01-03 17:00 N/A 65.95 µg/m3 3.92 µg/m3 14.07 °C N/A 1,010.41 mbar 1.67 m/s 334.58 Deg N/A
2022-01-03 16:00 N/A 60.03 µg/m3 4.45 µg/m3 14.4 °C N/A 1,010.48 mbar 2.03 m/s 340.43 Deg N/A
2022-01-03 15:00 N/A 59.92 µg/m3 4.13 µg/m3 14.7 °C N/A 1,010.73 mbar 2.11 m/s 329.97 Deg N/A
2022-01-03 14:00 N/A 61.54 µg/m3 4.45 µg/m3 14.87 °C N/A 1,011.05 mbar 2.03 m/s 329.65 Deg N/A
2022-01-03 13:00 N/A 63.64 µg/m3 3.28 µg/m3 15.14 °C N/A 1,011.50 mbar 1.8 m/s 326.22 Deg N/A
2022-01-03 12:00 N/A 63.08 µg/m3 3.67 µg/m3 15.56 °C N/A 1,012.10 mbar 1.97 m/s 329 Deg N/A
2022-01-03 11:00 N/A 64.25 µg/m3 1.52 µg/m3 14.56 °C N/A 1,012.52 mbar 2.76 m/s 336.85 Deg N/A
2022-01-03 10:00 N/A 60.97 µg/m3 2.5 µg/m3 13.9 °C N/A 1,012.39 mbar 1.91 m/s 323.87 Deg N/A
2022-01-03 09:00 N/A 57.98 µg/m3 3.09 µg/m3 13.59 °C N/A 1,012.12 mbar 1.67 m/s 329.85 Deg N/A
2022-01-03 08:00 N/A 58.02 µg/m3 1.06 µg/m3 13.23 °C N/A 1,011.96 mbar 1.56 m/s 308.58 Deg N/A
2022-01-03 07:00 N/A 59.25 µg/m3 1.33 µg/m3 13.27 °C N/A 1,012.02 mbar 1.56 m/s 316.35 Deg N/A
2022-01-03 06:00 N/A 62.54 µg/m3 1.84 µg/m3 13.27 °C 0 % 1,012.01 mbar 1.33 m/s 308.83 Deg N/A
2022-01-03 05:00 N/A 63.93 µg/m3 2.22 µg/m3 13.33 °C 0 % 1,012.15 mbar 1.31 m/s 322.83 Deg N/A
2022-01-03 04:00 N/A 61 µg/m3 2.2 µg/m3 13.39 °C 0 % 1,012.54 mbar 1.13 m/s 307.76 Deg N/A
2022-01-03 03:00 N/A 59.27 µg/m3 2.41 µg/m3 13.41 °C 0 % 1,012.81 mbar 1.07 m/s 316.7 Deg N/A
2022-01-03 02:00 N/A 60.64 µg/m3 1.8 µg/m3 13.28 °C 0 % 1,013.04 mbar 0.92 m/s 306.18 Deg N/A
2022-01-03 01:00 N/A 61.37 µg/m3 2.9 µg/m3 13.06 °C 0 % 1,013.48 mbar 0.77 m/s 310.89 Deg N/A
2022-01-03 00:00 N/A 59.92 µg/m3 6.91 µg/m3 12.79 °C 0 % 1,013.86 mbar 0.67 m/s 305.71 Deg N/A
2022-01-02 23:00 N/A 55.22 µg/m3 7.85 µg/m3 12.79 °C 0 % 1,014.24 mbar 0.62 m/s 309.45 Deg N/A
2022-01-02 22:00 N/A 52.68 µg/m3 9.67 µg/m3 13.02 °C 0 % 1,014.16 mbar 0.7 m/s 304.93 Deg N/A
2022-01-02 21:00 N/A 47.87 µg/m3 6.68 µg/m3 13.24 °C 0 % 1,014.21 mbar 0.59 m/s 303.41 Deg N/A
2022-01-02 20:00 N/A 51.46 µg/m3 4.45 µg/m3 13.63 °C 0 % 1,014.08 mbar 0.78 m/s 316.57 Deg N/A
2022-01-02 19:00 N/A 48.57 µg/m3 3.09 µg/m3 13.73 °C 0 % 1,014.09 mbar 0.43 m/s 269.62 Deg N/A
2022-01-02 18:00 N/A 58.23 µg/m3 3.26 µg/m3 14.3 °C 69.93 % 1,014.11 mbar 0.51 m/s 314.51 Deg N/A
2022-01-02 17:00 N/A 64.04 µg/m3 3.88 µg/m3 15.97 °C 100 % 1,013.67 mbar 0.64 m/s 322.4 Deg N/A
2022-01-02 16:00 N/A 65.86 µg/m3 3.2 µg/m3 17.09 °C 32.22 % 1,013.44 mbar 1.25 m/s 336.41 Deg N/A
2022-01-02 15:00 N/A 69.53 µg/m3 4.52 µg/m3 18.05 °C 2.82 % 1,013.50 mbar 1.13 m/s 293.38 Deg N/A
2022-01-02 14:00 N/A 68.97 µg/m3 5.17 µg/m3 18.09 °C 0 % 1,013.67 mbar 1.38 m/s 296.65 Deg N/A
2022-01-02 13:00 N/A 63.4 µg/m3 6.36 µg/m3 18.72 °C 0 % 1,014.14 mbar 1.04 m/s 320.88 Deg N/A
2022-01-02 12:00 N/A 65.34 µg/m3 5.34 µg/m3 18.23 °C 0 % 1,014.72 mbar 0.97 m/s 211.36 Deg N/A
2022-01-02 11:00 N/A 59.43 µg/m3 5.77 µg/m3 17.7 °C 0 % 1,015.11 mbar 1.04 m/s 181.01 Deg N/A
2022-01-02 10:00 N/A 53.82 µg/m3 6 µg/m3 16.2 °C 0 % 1,015.15 mbar 0.96 m/s 208.99 Deg N/A
2022-01-02 09:00 N/A 31.62 µg/m3 4.52 µg/m3 13.31 °C 0 % 1,014.85 mbar 0.95 m/s 278.78 Deg N/A
2022-01-02 08:00 N/A 24.93 µg/m3 2.75 µg/m3 11.44 °C 0 % 1,014.52 mbar 0.66 m/s 290.85 Deg N/A
2022-01-02 07:00 N/A 28.74 µg/m3 1.63 µg/m3 11.46 °C 0 % 1,013.99 mbar 0.57 m/s 287.73 Deg N/A
2022-01-02 06:00 N/A 33.73 µg/m3 1.08 µg/m3 11.79 °C 0 % 1,013.51 mbar 0.4 m/s 291.44 Deg N/A
2022-01-02 05:00 N/A 39.21 µg/m3 1.48 µg/m3 12.06 °C 0 % 1,013.37 mbar 0.26 m/s 317.66 Deg N/A
2022-01-02 04:00 N/A 48.75 µg/m3 1.84 µg/m3 12.71 °C 0 % 1,013.31 mbar 0.56 m/s 344.28 Deg N/A
2022-01-02 03:00 N/A 48.59 µg/m3 3.62 µg/m3 13.08 °C 0 % 1,013.34 mbar 0.57 m/s 322.62 Deg N/A
2022-01-02 02:00 N/A 47.95 µg/m3 4.32 µg/m3 13.59 °C 0 % 1,013.34 mbar 0.8 m/s 343.3 Deg N/A
2022-01-02 01:00 N/A 52.48 µg/m3 5.77 µg/m3 14.35 °C 0 % 1,013.33 mbar 1.1 m/s 174.2 Deg N/A
2022-01-02 00:00 N/A 50.33 µg/m3 8.53 µg/m3 14.37 °C 0 % 1,013.45 mbar 1.48 m/s 92.63 Deg N/A
2022-01-01 23:00 N/A 48.29 µg/m3 11.07 µg/m3 14.16 °C 0 % 1,013.39 mbar 0.89 m/s 250.58 Deg N/A
2022-01-01 22:00 N/A 49.5 µg/m3 13.45 µg/m3 13.94 °C 0 % 1,013.28 mbar 1.24 m/s 335.46 Deg N/A
2022-01-01 21:00 N/A 52.59 µg/m3 8.95 µg/m3 14.05 °C 0 % 1,013.06 mbar 2.51 m/s 340.1 Deg N/A
2022-01-01 20:00 N/A 49.62 µg/m3 4.83 µg/m3 14.16 °C 0 % 1,012.89 mbar 2.39 m/s 342.7 Deg N/A
2022-01-01 19:00 N/A 58.9 µg/m3 3.14 µg/m3 14.44 °C 0 % 1,012.36 mbar 2.78 m/s 339.28 Deg N/A
2022-01-01 18:00 N/A 61.7 µg/m3 4.05 µg/m3 14.5 °C 76.93 % 1,011.82 mbar 2.24 m/s 345.85 Deg N/A
2022-01-01 17:00 N/A 65.04 µg/m3 4.26 µg/m3 14.83 °C 58.3 % 1,011.68 mbar 2.57 m/s 332.78 Deg N/A
2022-01-01 16:00 N/A 69.66 µg/m3 4.96 µg/m3 15.55 °C 68.11 % 1,011.77 mbar 1.68 m/s 315.85 Deg N/A
2022-01-01 15:00 N/A 66.71 µg/m3 4.83 µg/m3 16.16 °C 100 % 1,011.88 mbar 1.78 m/s 328.17 Deg N/A
2022-01-01 14:00 N/A 66.81 µg/m3 5.28 µg/m3 16.28 °C 100 % 1,011.96 mbar 1.88 m/s 328.53 Deg N/A
2022-01-01 13:00 N/A 65.03 µg/m3 4.77 µg/m3 16.46 °C 74.6 % 1,012.55 mbar 1.75 m/s 330.98 Deg N/A
2022-01-01 12:00 N/A 64.37 µg/m3 5.75 µg/m3 16.55 °C 88.3 % 1,013.20 mbar 2.04 m/s 333.92 Deg N/A
2022-01-01 11:00 N/A 61.63 µg/m3 5.19 µg/m3 16.52 °C 99.6 % 1,013.62 mbar 1.62 m/s 335.53 Deg N/A
2022-01-01 10:00 N/A 57.59 µg/m3 4.62 µg/m3 15.83 °C 100 % 1,013.53 mbar 1.56 m/s 334.87 Deg N/A
2022-01-01 09:00 N/A 54.65 µg/m3 2.88 µg/m3 14.78 °C 20 % 1,013.23 mbar 1.15 m/s 330.38 Deg N/A
2022-01-01 08:00 N/A 51.37 µg/m3 1.88 µg/m3 13.79 °C 0 % 1,013.12 mbar 1.05 m/s 251.02 Deg N/A
2022-01-01 07:00 N/A 57.25 µg/m3 1.8 µg/m3 13.57 °C 0 % 1,012.94 mbar 0.9 m/s 326.48 Deg N/A
2022-01-01 06:00 N/A 57.77 µg/m3 2.97 µg/m3 13.7 °C 0 % 1,012.83 mbar 0.9 m/s 331.8 Deg N/A
2022-01-01 05:00 N/A 54.64 µg/m3 4.69 µg/m3 13.81 °C 45.88 % 1,012.93 mbar 0.91 m/s 340.5 Deg N/A
2022-01-01 04:00 N/A 57.37 µg/m3 4.49 µg/m3 13.78 °C 100 % 1,013.17 mbar 0.69 m/s 320.88 Deg N/A
2022-01-01 03:00 N/A 67.33 µg/m3 2.82 µg/m3 13.9 °C 100 % 1,013.65 mbar 0.89 m/s 337.06 Deg N/A
2022-01-01 02:00 N/A 70.24 µg/m3 3.35 µg/m3 13.23 °C 100 % 1,013.67 mbar 0.55 m/s 329.95 Deg N/A
2022-01-01 01:00 N/A 69.67 µg/m3 7.51 µg/m3 12.56 °C 100 % 1,013.79 mbar 0.52 m/s 326.69 Deg N/A
2022-01-01 00:00 N/A 40.49 µg/m3 6.23 µg/m3 11.4 °C 100 % 1,013.99 mbar 0.35 m/s 318.15 Deg N/A
2021-12-31 23:00 N/A 49.69 µg/m3 6.28 µg/m3 12.74 °C 100 % 1,014.14 mbar 0.38 m/s 302.44 Deg N/A
2021-12-31 22:00 N/A 60.99 µg/m3 11.6 µg/m3 13.25 °C 100 % 1,014.18 mbar 0.65 m/s 319.05 Deg N/A
2021-12-31 21:00 N/A 46.68 µg/m3 9.33 µg/m3 12.75 °C 100 % 1,014.10 mbar 0.58 m/s 300.45 Deg N/A
2021-12-31 20:00 N/A 37.36 µg/m3 8.72 µg/m3 12.52 °C 100 % 1,013.86 mbar 0.57 m/s 297.79 Deg N/A
2021-12-31 19:00 N/A 40.46 µg/m3 7.3 µg/m3 13.12 °C 100 % 1,013.69 mbar 0.46 m/s 292.05 Deg N/A
2021-12-31 18:00 N/A 54.76 µg/m3 5.66 µg/m3 14.41 °C 100 % 1,013.13 mbar 0.43 m/s 309.6 Deg N/A
2021-12-31 17:00 N/A 70.69 µg/m3 4.15 µg/m3 15.88 °C 100 % 1,012.49 mbar 0.99 m/s 180.46 Deg N/A
2021-12-31 16:00 N/A 78.97 µg/m3 2.31 µg/m3 16.7 °C 100 % 1,012.05 mbar 1.47 m/s 17.35 Deg N/A
2021-12-31 15:00 N/A 78.21 µg/m3 2.46 µg/m3 17.09 °C 100 % 1,011.77 mbar 1.87 m/s 19.97 Deg N/A
2021-12-31 14:00 N/A 76.1 µg/m3 6.36 µg/m3 17.37 °C 100 % 1,011.77 mbar 2.03 m/s 23.57 Deg N/A
2021-12-31 13:00 N/A 70.71 µg/m3 6.77 µg/m3 17.73 °C 100 % 1,011.99 mbar 1.41 m/s 262.23 Deg N/A
2021-12-31 12:00 N/A 70.51 µg/m3 5.22 µg/m3 17.67 °C 100 % 1,012.33 mbar 0.99 m/s 326.64 Deg N/A
2021-12-31 11:00 N/A 66.47 µg/m3 7.4 µg/m3 17.06 °C 100 % 1,012.33 mbar 0.88 m/s 341.51 Deg N/A
2021-12-31 10:00 N/A 52.67 µg/m3 8.97 µg/m3 16.27 °C 88.91 % 1,012.05 mbar 0.71 m/s 314.31 Deg N/A
2021-12-31 09:00 N/A 20.88 µg/m3 8.57 µg/m3 13.74 °C 100 % 1,011.61 mbar 0.45 m/s 291.46 Deg N/A
2021-12-31 08:00 N/A 7.61 µg/m3 4.54 µg/m3 10.96 °C 100 % 1,011.11 mbar 0.33 m/s 309.08 Deg N/A
2021-12-31 07:00 N/A 14.82 µg/m3 3.01 µg/m3 10.27 °C 100 % 1,010.36 mbar 0.65 m/s 286.87 Deg N/A
2021-12-31 06:00 N/A 24.13 µg/m3 3.37 µg/m3 10.65 °C 100 % 1,009.64 mbar 0.38 m/s 290.37 Deg N/A
2021-12-31 05:00 N/A 29.69 µg/m3 3.84 µg/m3 10.89 °C 100 % 1,009.32 mbar 0.37 m/s 294.73 Deg N/A
2021-12-31 04:00 N/A 29.01 µg/m3 2.99 µg/m3 11.48 °C 100 % 1,009.25 mbar 0.36 m/s 294.13 Deg N/A
2021-12-31 03:00 N/A 27.27 µg/m3 4.58 µg/m3 12.27 °C 100 % 1,009.19 mbar 0.42 m/s 303 Deg N/A
2021-12-31 02:00 N/A 44.97 µg/m3 7 µg/m3 13.07 °C 100 % 1,008.95 mbar 0.73 m/s 273.05 Deg N/A
2021-12-31 01:00 N/A 44.61 µg/m3 11.35 µg/m3 13.29 °C 100 % 1,008.63 mbar 0.8 m/s 25.02 Deg N/A
2021-12-31 00:00 N/A 17.83 µg/m3 10.25 µg/m3 12.92 °C 100 % 1,008.42 mbar 0.55 m/s 241.5 Deg N/A
2021-12-30 23:00 N/A 7.49 µg/m3 9.08 µg/m3 13.07 °C 100 % 1,007.89 mbar 0.41 m/s 307.01 Deg N/A
2021-12-30 22:00 N/A 6.34 µg/m3 9.65 µg/m3 13.28 °C 100 % 1,007.39 mbar 0.46 m/s 275 Deg N/A
2021-12-30 21:00 N/A 4.91 µg/m3 9.25 µg/m3 13.52 °C 100 % 1,006.68 mbar 0.42 m/s 250.4 Deg N/A
2021-12-30 20:00 N/A 22.96 µg/m3 7.83 µg/m3 14.03 °C 100 % 1,006.23 mbar 0.53 m/s 295.7 Deg N/A
2021-12-30 19:00 N/A 25.17 µg/m3 5.32 µg/m3 14.51 °C 100 % 1,005.73 mbar 0.33 m/s 272.38 Deg N/A
2021-12-30 18:00 N/A 45.69 µg/m3 5.19 µg/m3 15.18 °C 99.94 % 1,004.98 mbar 0.49 m/s 318.93 Deg N/A
2021-12-30 17:00 N/A 64.01 µg/m3 5.45 µg/m3 15.98 °C 99.74 % 1,004.56 mbar 1.24 m/s 98.43 Deg N/A
2021-12-30 16:00 N/A 64.77 µg/m3 6.43 µg/m3 16.42 °C 100 % 1,003.98 mbar 1.5 m/s 16.43 Deg N/A
2021-12-30 15:00 N/A 65.05 µg/m3 7.13 µg/m3 16.95 °C 99.97 % 1,003.61 mbar 2.12 m/s 11.28 Deg N/A
2021-12-30 14:00 N/A 63.81 µg/m3 7.19 µg/m3 17.08 °C 100 % 1,003.46 mbar 2.74 m/s 102.68 Deg N/A
2021-12-30 13:00 N/A 62.55 µg/m3 8.31 µg/m3 17.29 °C 100 % 1,003.49 mbar 2.51 m/s 186.5 Deg N/A
2021-12-30 12:00 N/A 62.82 µg/m3 8.95 µg/m3 17.23 °C 100 % 1,003.54 mbar 3.23 m/s 12.25 Deg N/A
2021-12-30 11:00 N/A 59.98 µg/m3 8.4 µg/m3 17.08 °C 100 % 1,003.90 mbar 2.81 m/s 92.62 Deg N/A
2021-12-30 10:00 N/A 56.97 µg/m3 8.63 µg/m3 16.68 °C 100 % 1,003.72 mbar 2.42 m/s 265.6 Deg N/A
2021-12-30 09:00 N/A 47.54 µg/m3 5.92 µg/m3 15.9 °C 100 % 1,003.02 mbar 1.86 m/s 264.1 Deg N/A
2021-12-30 08:00 N/A 54.09 µg/m3 6.11 µg/m3 15.14 °C 100 % 1,002.49 mbar 1.63 m/s 266.52 Deg N/A
2021-12-30 07:00 N/A 57.76 µg/m3 4.45 µg/m3 15.21 °C 100 % 1,001.82 mbar 1.4 m/s 261.82 Deg N/A
2021-12-30 06:00 N/A 61.84 µg/m3 6.96 µg/m3 15.33 °C 100 % 1,001.59 mbar 1.78 m/s 345.33 Deg N/A
2021-12-30 05:00 N/A 64.6 µg/m3 5.73 µg/m3 15.44 °C 100 % 1,001.55 mbar 2 m/s 341.93 Deg N/A
2021-12-30 04:00 N/A 63.03 µg/m3 4.64 µg/m3 15.29 °C 100 % 1,001.59 mbar 1.9 m/s 349.52 Deg N/A
2021-12-30 03:00 N/A 64.51 µg/m3 5.94 µg/m3 15.26 °C 100 % 1,001.77 mbar 2.05 m/s 342.91 Deg N/A
2021-12-30 02:00 N/A 64.91 µg/m3 5.7 µg/m3 15.31 °C 100 % 1,001.86 mbar 1.8 m/s 347.87 Deg N/A
2021-12-30 01:00 N/A 67.23 µg/m3 6.3 µg/m3 15.47 °C 100 % 1,001.57 mbar 2.45 m/s 265.83 Deg N/A
2021-12-30 00:00 N/A 69.35 µg/m3 7.34 µg/m3 15.76 °C 100 % 1,001.81 mbar 2.42 m/s 350.42 Deg N/A
2021-12-29 23:00 N/A 72.01 µg/m3 7.85 µg/m3 15.83 °C 100 % 1,001.74 mbar 2.86 m/s 342.67 Deg N/A
2021-12-29 22:00 N/A 71.65 µg/m3 7.23 µg/m3 15.87 °C 100 % 1,001.67 mbar 2.15 m/s 329.68 Deg N/A
2021-12-29 21:00 N/A 71.54 µg/m3 8.59 µg/m3 15.91 °C 100 % 1,001.61 mbar 1.72 m/s 300.88 Deg N/A
2021-12-29 20:00 N/A 72.82 µg/m3 8.42 µg/m3 15.82 °C 99.98 % 1,000.98 mbar 2.38 m/s 326.05 Deg N/A
2021-12-29 19:00 N/A 74.7 µg/m3 9.46 µg/m3 15.98 °C 99.08 % 1,001.11 mbar 2.52 m/s 311.35 Deg N/A
2021-12-29 18:00 N/A 77.03 µg/m3 8.99 µg/m3 16.04 °C 97.83 % 1,001.24 mbar 2.82 m/s 330.2 Deg N/A
2021-12-29 17:00 N/A 77.03 µg/m3 10.67 µg/m3 16.24 °C 97.35 % 1,000.77 mbar 2.34 m/s 320.02 Deg N/A
2021-12-29 16:00 N/A 76.18 µg/m3 10.25 µg/m3 16.6 °C 94.38 % 1,000.84 mbar 2.82 m/s 328.87 Deg N/A
2021-12-29 15:00 N/A 75.49 µg/m3 10.59 µg/m3 16.74 °C 94.16 % 1,000.69 mbar 3.22 m/s 339.82 Deg N/A
2021-12-29 14:00 N/A 73.15 µg/m3 10.25 µg/m3 16.84 °C 93.99 % 1,000.91 mbar 2.87 m/s 328.3 Deg N/A
2021-12-29 13:00 N/A 72 µg/m3 10.44 µg/m3 16.9 °C 94.48 % 1,001.53 mbar 2.65 m/s 316.38 Deg N/A
2021-12-29 12:00 N/A 68.51 µg/m3 9.8 µg/m3 16.46 °C 95.19 % 1,002.21 mbar 2.29 m/s 316.38 Deg N/A
2021-12-29 11:00 N/A 66.44 µg/m3 10.82 µg/m3 16.33 °C 94.2 % 1,002.74 mbar 2.27 m/s 313.5 Deg N/A
2021-12-29 10:00 N/A 65.47 µg/m3 8.89 µg/m3 16.35 °C 97.03 % 1,002.80 mbar 2.23 m/s 327.75 Deg N/A
2021-12-29 09:00 N/A 66.86 µg/m3 8.87 µg/m3 15.91 °C 99.78 % 1,002.30 mbar 2.19 m/s 314.98 Deg N/A
2021-12-29 08:00 N/A 65.63 µg/m3 6.19 µg/m3 15.6 °C 99.99 % 1,002.18 mbar 1.95 m/s 328.45 Deg N/A
2021-12-29 07:00 N/A 70.46 µg/m3 5.47 µg/m3 15.46 °C 99.43 % 1,002.02 mbar 1.86 m/s 333.11 Deg N/A
2021-12-29 06:00 N/A 69.79 µg/m3 5.75 µg/m3 15.34 °C 99.67 % 1,001.79 mbar 1.37 m/s 326.52 Deg N/A
2021-12-29 05:00 N/A 67.34 µg/m3 6.7 µg/m3 15.23 °C 99.7 % 1,001.76 mbar 1.72 m/s 322.77 Deg N/A
2021-12-29 04:00 N/A 68.33 µg/m3 7.51 µg/m3 15.2 °C 98.32 % 1,001.82 mbar 1.76 m/s 325.8 Deg N/A
2021-12-29 03:00 N/A 68.96 µg/m3 7.42 µg/m3 15.18 °C 97.07 % 1,001.95 mbar 2.14 m/s 337.13 Deg N/A
2021-12-29 02:00 N/A 69.66 µg/m3 5.62 µg/m3 15.12 °C 96.49 % 1,001.93 mbar 1.73 m/s 309.72 Deg N/A
2021-12-29 01:00 N/A 73.46 µg/m3 6.96 µg/m3 15.12 °C 94.77 % 1,002.03 mbar 1.51 m/s 329.4 Deg N/A
2021-12-29 00:00 N/A 72.73 µg/m3 7.98 µg/m3 15.1 °C 96.19 % 1,002.16 mbar 1.95 m/s 335.8 Deg N/A
2021-12-28 23:00 N/A 74.3 µg/m3 6.45 µg/m3 15.33 °C 94.46 % 1,002.32 mbar 1.58 m/s 329.97 Deg N/A
2021-12-28 22:00 N/A 75.73 µg/m3 7.17 µg/m3 15.2 °C 93.96 % 1,001.91 mbar 1.93 m/s 309.15 Deg N/A
2021-12-28 21:00 N/A 75.07 µg/m3 8.23 µg/m3 15.27 °C 91.22 % 1,001.93 mbar 1.92 m/s 324.12 Deg N/A
2021-12-28 20:00 N/A 72.06 µg/m3 8.63 µg/m3 15.53 °C 91.12 % 1,001.96 mbar 1.76 m/s 316.78 Deg N/A
2021-12-28 19:00 N/A 70.27 µg/m3 7.11 µg/m3 15.51 °C 90.32 % 1,001.60 mbar 1.93 m/s 302 Deg N/A
2021-12-28 18:00 N/A 72.33 µg/m3 7.91 µg/m3 15.56 °C 87.85 % 1,001.21 mbar 1.95 m/s 318.25 Deg N/A
2021-12-28 17:00 N/A 73.41 µg/m3 7.85 µg/m3 15.89 °C 86.58 % 1,000.70 mbar 2.08 m/s 326.8 Deg N/A
2021-12-28 16:00 N/A 73.84 µg/m3 7.74 µg/m3 16.52 °C 83.35 % 1,000.38 mbar 2.31 m/s 334.08 Deg N/A
2021-12-28 15:00 N/A 74.72 µg/m3 8.97 µg/m3 17.03 °C 76.09 % 999.81 mbar 2.56 m/s 309.75 Deg N/A
2021-12-28 14:00 N/A 75.24 µg/m3 7.78 µg/m3 17.47 °C 72.07 % 999.89 mbar 2.38 m/s 326.78 Deg N/A
2021-12-28 13:00 N/A 73.96 µg/m3 7.89 µg/m3 17.49 °C 72.37 % 1,000.28 mbar 2.83 m/s 325.37 Deg N/A
2021-12-28 12:00 N/A 69.5 µg/m3 8.61 µg/m3 17.11 °C 76.45 % 1,000.83 mbar 2.22 m/s 313.6 Deg N/A
2021-12-28 11:00 N/A 65 µg/m3 9.86 µg/m3 16.85 °C 79.85 % 1,001.43 mbar 1.91 m/s 327.78 Deg N/A
2021-12-28 10:00 N/A 60.66 µg/m3 9.08 µg/m3 16.87 °C 81.02 % 1,001.43 mbar 2.38 m/s 304.12 Deg N/A
2021-12-28 09:00 N/A 61.03 µg/m3 6.4 µg/m3 16.18 °C 83.53 % 1,000.93 mbar 2.05 m/s 318.53 Deg N/A
2021-12-28 08:00 N/A 58.63 µg/m3 5.26 µg/m3 15.51 °C 88.37 % 1,000.39 mbar 2.05 m/s 324.15 Deg N/A
2021-12-28 07:00 N/A 57.72 µg/m3 5.13 µg/m3 15.6 °C 86.74 % 1,000.27 mbar 1.78 m/s 322.63 Deg N/A
2021-12-28 06:00 N/A 57.71 µg/m3 7.04 µg/m3 15.9 °C 86.46 % 999.85 mbar 1.68 m/s 312.11 Deg N/A
2021-12-28 05:00 N/A 61.52 µg/m3 8.38 µg/m3 16.17 °C 86.04 % 999.72 mbar 2.71 m/s 314.25 Deg N/A
2021-12-28 04:00 N/A 67.91 µg/m3 10.01 µg/m3 15.95 °C 87.44 % 1,000.28 mbar 2.73 m/s 300.53 Deg N/A
2021-12-28 03:00 N/A 71.31 µg/m3 8.38 µg/m3 15.68 °C 91.62 % 999.95 mbar 2.95 m/s 291.43 Deg N/A
2021-12-28 02:00 N/A 71.31 µg/m3 5.58 µg/m3 15.6 °C 96.68 % 1,000.63 mbar 3.14 m/s 283.23 Deg N/A
2021-12-28 01:00 N/A 70.54 µg/m3 6.79 µg/m3 15.43 °C 96.31 % 1,001.46 mbar 2.38 m/s 282.63 Deg N/A
2021-12-28 00:00 N/A 73.04 µg/m3 6.15 µg/m3 15.69 °C 93.19 % 1,002.18 mbar 2.09 m/s 296.8 Deg N/A
2021-12-27 23:00 N/A 72.84 µg/m3 5.6 µg/m3 15.66 °C 96.38 % 1,002.53 mbar 2.08 m/s 287.2 Deg N/A
2021-12-27 22:00 N/A 70.84 µg/m3 6.07 µg/m3 15.63 °C 94.58 % 1,002.49 mbar 1.81 m/s 279.9 Deg N/A
2021-12-27 21:00 N/A 69.22 µg/m3 6.87 µg/m3 15.57 °C 92.92 % 1,002.66 mbar 1.66 m/s 283.58 Deg N/A
2021-12-27 20:00 N/A 66.87 µg/m3 7.98 µg/m3 15.62 °C 88.98 % 1,002.66 mbar 1.36 m/s 307.77 Deg N/A
2021-12-27 19:00 N/A 68.64 µg/m3 6.62 µg/m3 15.47 °C 84.93 % 1,002.51 mbar 0.88 m/s 317.73 Deg N/A
2021-12-27 18:00 N/A 69.25 µg/m3 6.38 µg/m3 15.56 °C 84.62 % 1,002.45 mbar 1.05 m/s 318.55 Deg N/A
2021-12-27 17:00 N/A 68.91 µg/m3 6.62 µg/m3 15.91 °C 83.8 % 1,002.15 mbar 1.24 m/s 323.69 Deg N/A
2021-12-27 16:00 N/A 72.13 µg/m3 6.91 µg/m3 16.46 °C 81.48 % 1,001.97 mbar 1.37 m/s 324.33 Deg N/A
2021-12-27 15:00 N/A 70.87 µg/m3 6.81 µg/m3 17.09 °C 76.73 % 1,001.62 mbar 1.56 m/s 312.42 Deg N/A
2021-12-27 14:00 N/A 71.43 µg/m3 6.74 µg/m3 17.53 °C 73.48 % 1,001.64 mbar 1.63 m/s 324.05 Deg N/A
2021-12-27 13:00 N/A 67.81 µg/m3 5.79 µg/m3 17.98 °C 71.53 % 1,001.99 mbar 1.52 m/s 331.35 Deg N/A
2021-12-27 12:00 N/A 62.29 µg/m3 6.68 µg/m3 17.94 °C 71.22 % 1,002.34 mbar 1.42 m/s 333.17 Deg N/A
2021-12-27 11:00 N/A 60.4 µg/m3 7.66 µg/m3 17.73 °C 70.45 % 1,002.56 mbar 1.88 m/s 349.67 Deg N/A
2021-12-27 10:00 N/A 53.07 µg/m3 1.8 µg/m3 17.5 °C 72.68 % 1,002.29 mbar 1.21 m/s 330.88 Deg N/A
2021-12-27 09:00 N/A 30.54 µg/m3 -0.22 µg/m3 15.68 °C 86.32 % 1,001.92 mbar 0.6 m/s 335.3 Deg N/A
2021-12-27 08:00 N/A 32.91 µg/m3 4.98 µg/m3 14.4 °C 91.54 % 1,001.69 mbar 0.52 m/s 325.93 Deg N/A
2021-12-27 07:00 N/A 45.67 µg/m3 5.6 µg/m3 14.69 °C 88.09 % 1,001.20 mbar 0.44 m/s 317.07 Deg N/A
2021-12-27 06:00 N/A 32.65 µg/m3 5.75 µg/m3 15.02 °C 85.22 % 1,000.42 mbar 0.37 m/s 269.63 Deg N/A
2021-12-27 05:00 N/A 55.79 µg/m3 4.45 µg/m3 15.86 °C 79.77 % 1,000.33 mbar 0.4 m/s 230.9 Deg N/A
2021-12-27 04:00 N/A 69.61 µg/m3 5.11 µg/m3 16 °C 79.6 % 1,000.39 mbar 1.08 m/s 261.2 Deg N/A
2021-12-27 03:00 N/A 68.18 µg/m3 5.66 µg/m3 15.62 °C 84.48 % 1,000.90 mbar 1.18 m/s 248.02 Deg N/A
2021-12-27 02:00 N/A 69.57 µg/m3 4.39 µg/m3 16 °C 84.67 % 1,001.21 mbar 1.22 m/s 249.77 Deg N/A
2021-12-27 01:00 N/A 71.84 µg/m3 3.75 µg/m3 16.21 °C 86.7 % 1,001.75 mbar 1.7 m/s 247.78 Deg N/A
2021-12-27 00:00 N/A 69.15 µg/m3 4.39 µg/m3 15.96 °C 89.86 % 1,002.20 mbar 1.77 m/s 252.85 Deg N/A
2021-12-26 23:00 N/A 69.92 µg/m3 4.3 µg/m3 15.97 °C 87.2 % 1,002.34 mbar 1.77 m/s 245.6 Deg N/A
2021-12-26 22:00 N/A 68.73 µg/m3 4.39 µg/m3 15.94 °C 86.05 % 1,002.34 mbar 2.03 m/s 240.85 Deg N/A
2021-12-26 21:00 N/A 65.76 µg/m3 5.34 µg/m3 16.06 °C 88.01 % 1,002.26 mbar 2.22 m/s 236.02 Deg N/A
2021-12-26 20:00 N/A 62.61 µg/m3 4.56 µg/m3 15.97 °C 85.55 % 1,002.38 mbar 1.52 m/s 231.95 Deg N/A
2021-12-26 19:00 N/A 59.2 µg/m3 7 µg/m3 16.22 °C 79.57 % 1,002.15 mbar 1.11 m/s 213.74 Deg N/A
2021-12-26 18:00 N/A 60.44 µg/m3 7.55 µg/m3 16.48 °C 71.96 % 1,001.71 mbar 1.64 m/s 240.93 Deg N/A
2021-12-26 17:00 N/A 64.4 µg/m3 5.77 µg/m3 17.06 °C 68.12 % 1,001.39 mbar 2.11 m/s 249.72 Deg N/A
2021-12-26 16:00 N/A 68.46 µg/m3 4.32 µg/m3 17.9 °C 62.09 % 1,001.37 mbar 2.74 m/s 256.07 Deg N/A
2021-12-26 15:00 N/A 71.53 µg/m3 5.49 µg/m3 18.63 °C 57.79 % 1,001.59 mbar 2.96 m/s 266.45 Deg N/A
2021-12-26 14:00 N/A 72.88 µg/m3 7.06 µg/m3 19.03 °C 57.81 % 1,001.87 mbar 2.85 m/s 255.48 Deg N/A
2021-12-26 13:00 N/A 67.23 µg/m3 7.04 µg/m3 19.29 °C 55.38 % 1,002.31 mbar 3.09 m/s 250.13 Deg N/A
2021-12-26 12:00 N/A 62.24 µg/m3 7.81 µg/m3 19.48 °C 53.34 % 1,002.95 mbar 2.8 m/s 259.62 Deg N/A
2021-12-26 11:00 N/A 63.11 µg/m3 8.1 µg/m3 19.21 °C 47.62 % 1,003.59 mbar 2.7 m/s 254.15 Deg N/A
2021-12-26 10:00 N/A 53.39 µg/m3 6.89 µg/m3 17.5 °C 61.67 % 1,003.95 mbar 1.33 m/s 246.95 Deg N/A
2021-12-26 09:00 N/A 57.7 µg/m3 5.98 µg/m3 16.84 °C 67.72 % 1,003.58 mbar 1.51 m/s 248.57 Deg N/A
2021-12-26 08:00 N/A 59.43 µg/m3 6 µg/m3 15.72 °C 73.48 % 1,003.34 mbar 1.88 m/s 265.35 Deg N/A
2021-12-26 07:00 N/A 60.07 µg/m3 5.11 µg/m3 15.58 °C 80.46 % 1,003.19 mbar 1.55 m/s 254.86 Deg N/A
2021-12-26 06:00 N/A 64.51 µg/m3 5.36 µg/m3 15.85 °C 79.32 % 1,003.02 mbar 2.32 m/s 269.5 Deg N/A
2021-12-26 05:00 N/A 63.61 µg/m3 5.81 µg/m3 16.24 °C 81.72 % 1,002.67 mbar 2.69 m/s 258.32 Deg N/A
2021-12-26 04:00 N/A 64.67 µg/m3 5.7 µg/m3 16.42 °C 79.55 % 1,002.80 mbar 2.61 m/s 266.73 Deg N/A
2021-12-26 03:00 N/A 66.15 µg/m3 5.58 µg/m3 16.28 °C 79.95 % 1,003.15 mbar 2.98 m/s 259.23 Deg N/A
2021-12-26 02:00 N/A 67.75 µg/m3 5.81 µg/m3 16.46 °C 76.87 % 1,003.22 mbar 2.93 m/s 254.52 Deg N/A
2021-12-26 01:00 N/A 67.67 µg/m3 6.15 µg/m3 15.92 °C 82.83 % 1,003.45 mbar 1.88 m/s 247.43 Deg N/A
2021-12-26 00:00 N/A 68.33 µg/m3 6.17 µg/m3 15.77 °C 82.81 % 1,003.70 mbar 1.68 m/s 238.82 Deg N/A
2021-12-25 23:00 N/A 68.7 µg/m3 6.66 µg/m3 15.83 °C 83.08 % 1,003.94 mbar 1.79 m/s 242.68 Deg N/A
2021-12-25 22:00 N/A 68.53 µg/m3 7.91 µg/m3 15.68 °C 88.8 % 1,004.19 mbar 1.99 m/s 239.8 Deg N/A
2021-12-25 21:00 N/A 65.39 µg/m3 9.23 µg/m3 15.55 °C 91.66 % 1,004.36 mbar 1.59 m/s 231.15 Deg N/A
2021-12-25 20:00 N/A 60.81 µg/m3 9.55 µg/m3 15.63 °C 89.63 % 1,004.24 mbar 1.64 m/s 240.2 Deg N/A
2021-12-25 19:00 N/A 62.54 µg/m3 11.33 µg/m3 15.85 °C 87.55 % 1,004.24 mbar 1.77 m/s 236.72 Deg N/A
2021-12-25 18:00 N/A 61.95 µg/m3 12.11 µg/m3 16.03 °C 85.48 % 1,004.11 mbar 1.84 m/s 240.07 Deg N/A
2021-12-25 17:00 N/A 68.18 µg/m3 11.41 µg/m3 16.63 °C 81.64 % 1,004.10 mbar 1.95 m/s 238.97 Deg N/A
2021-12-25 16:00 N/A 79.16 µg/m3 9.12 µg/m3 17.26 °C 80.36 % 1,004.18 mbar 2.08 m/s 231.23 Deg N/A
2021-12-25 15:00 N/A 82.13 µg/m3 8.12 µg/m3 17.83 °C 77.6 % 1,004.35 mbar 2.39 m/s 243.72 Deg N/A
2021-12-25 14:00 N/A 82.7 µg/m3 7.38 µg/m3 18.18 °C 75.45 % 1,004.62 mbar 2.58 m/s 242.43 Deg N/A
2021-12-25 13:00 N/A 80.42 µg/m3 9.46 µg/m3 17.96 °C 77.34 % 1,005.31 mbar 3.23 m/s 242.53 Deg N/A
2021-12-25 12:00 N/A 73.92 µg/m3 9.14 µg/m3 17.79 °C 79.18 % 1,006.01 mbar 2.98 m/s 233.4 Deg N/A
2021-12-25 11:00 N/A 66.17 µg/m3 7.51 µg/m3 17.83 °C 80.43 % 1,006.70 mbar 3.21 m/s 234.07 Deg N/A
2021-12-25 10:00 N/A 70.01 µg/m3 6.19 µg/m3 17.36 °C 86.24 % 1,007.24 mbar 2.89 m/s 222.73 Deg N/A
2021-12-25 09:00 N/A 68.62 µg/m3 6.66 µg/m3 16.57 °C 90.82 % 1,007.52 mbar 1.83 m/s 223.92 Deg N/A
2021-12-25 08:00 N/A 63.9 µg/m3 7.49 µg/m3 15.34 °C 94.44 % 1,007.54 mbar 1.22 m/s 204.88 Deg N/A
2021-12-25 07:00 N/A 82.29 µg/m3 5.9 µg/m3 15.27 °C 91.73 % 1,007.30 mbar 1.29 m/s 238.32 Deg N/A
2021-12-25 06:00 N/A 80.15 µg/m3 5.81 µg/m3 15.27 °C 90.33 % 1,007.16 mbar 1.5 m/s 241.01 Deg N/A
2021-12-25 05:00 N/A 82.88 µg/m3 3.82 µg/m3 15.27 °C 89.1 % 1,007.17 mbar 1.47 m/s 241.28 Deg N/A
2021-12-25 04:00 N/A 82.35 µg/m3 3.22 µg/m3 15.1 °C 87.88 % 1,007.46 mbar 1.64 m/s 228.58 Deg N/A
2021-12-25 03:00 N/A 79.46 µg/m3 4.15 µg/m3 14.91 °C 88.76 % 1,007.72 mbar 1.61 m/s 223.23 Deg N/A
2021-12-25 02:00 N/A 68.22 µg/m3 4.07 µg/m3 14.25 °C 91.85 % 1,008.03 mbar 1.14 m/s 203.33 Deg N/A
2021-12-25 01:00 N/A 57.3 µg/m3 4.83 µg/m3 13.71 °C 91.86 % 1,008.58 mbar 0.67 m/s 193.32 Deg N/A
2021-12-25 00:00 N/A 51.36 µg/m3 7.04 µg/m3 13.3 °C 94.4 % 1,009.10 mbar 0.67 m/s 214.65 Deg N/A
2021-12-24 23:00 N/A 38.9 µg/m3 9.91 µg/m3 12.44 °C 95.26 % 1,009.39 mbar 0.52 m/s 231.32 Deg N/A
2021-12-24 22:00 N/A 30.03 µg/m3 16.44 µg/m3 12.03 °C 93.88 % 1,009.51 mbar 0.34 m/s 235.03 Deg N/A
2021-12-24 21:00 N/A 18.34 µg/m3 12.84 µg/m3 12.04 °C 91.4 % 1,009.62 mbar 0.36 m/s 272.91 Deg N/A
2021-12-24 20:00 N/A 22.95 µg/m3 9.08 µg/m3 12.15 °C 89.3 % 1,009.96 mbar 0.53 m/s 285.06 Deg N/A
2021-12-24 19:00 N/A 21.85 µg/m3 5.26 µg/m3 12.74 °C 85.73 % 1,009.86 mbar 0.6 m/s 242.12 Deg N/A
2021-12-24 18:00 N/A 27.43 µg/m3 3.56 µg/m3 13.81 °C 80.09 % 1,009.71 mbar 0.33 m/s 214.16 Deg N/A
2021-12-24 17:00 N/A 64.7 µg/m3 3.35 µg/m3 15.23 °C 72.79 % 1,009.57 mbar 1.01 m/s 205.78 Deg N/A
2021-12-24 16:00 N/A 76.86 µg/m3 2.71 µg/m3 16.41 °C 65.3 % 1,009.37 mbar 1.22 m/s 230.07 Deg N/A
2021-12-24 15:00 N/A 78.89 µg/m3 1.93 µg/m3 17.05 °C 59.39 % 1,009.62 mbar 0.96 m/s 284.78 Deg N/A
2021-12-24 14:00 N/A 78.27 µg/m3 1.61 µg/m3 16.83 °C 59.94 % 1,010.04 mbar 1.51 m/s 281.93 Deg N/A
2021-12-24 13:00 N/A 76.66 µg/m3 1.31 µg/m3 16.8 °C 62.54 % 1,010.54 mbar 1.38 m/s 256 Deg N/A
2021-12-24 12:00 N/A 75.39 µg/m3 3.52 µg/m3 16.28 °C 67.18 % 1,011.44 mbar 1.64 m/s 226.02 Deg N/A
2021-12-24 11:00 N/A 71.52 µg/m3 6.19 µg/m3 15.93 °C 70.37 % 1,012.21 mbar 1.49 m/s 199 Deg N/A
2021-12-24 10:00 N/A 51.1 µg/m3 10.97 µg/m3 15.37 °C 75.73 % 1,012.52 mbar 0.89 m/s 188.99 Deg N/A
2021-12-24 09:00 N/A 22.44 µg/m3 9.35 µg/m3 12.55 °C 92.9 % 1,012.37 mbar 0.42 m/s 277.36 Deg N/A
2021-12-24 08:00 N/A 3.4 µg/m3 5.24 µg/m3 10.02 °C 98.11 % 1,012.19 mbar 0.57 m/s 287.21 Deg N/A
2021-12-24 07:00 N/A 6.32 µg/m3 3.75 µg/m3 9.73 °C 96.88 % 1,011.96 mbar 0.46 m/s 297.18 Deg N/A
2021-12-24 06:00 N/A 17.97 µg/m3 3.35 µg/m3 9.81 °C 95.67 % 1,011.78 mbar 0.53 m/s 289.62 Deg N/A
2021-12-24 05:00 N/A 27.46 µg/m3 4.47 µg/m3 9.89 °C 94.49 % 1,011.72 mbar 0.45 m/s 290.37 Deg N/A
2021-12-24 04:00 N/A 19.88 µg/m3 5.32 µg/m3 10.02 °C 92.88 % 1,011.78 mbar 0.44 m/s 289.77 Deg N/A
2021-12-24 03:00 N/A 15.03 µg/m3 7.13 µg/m3 10.49 °C 91.64 % 1,011.80 mbar 0.36 m/s 298.7 Deg N/A
2021-12-24 02:00 N/A 18.48 µg/m3 8.12 µg/m3 10.65 °C 89.62 % 1,011.82 mbar 0.31 m/s 294.48 Deg N/A
2021-12-24 01:00 N/A 16.09 µg/m3 9.29 µg/m3 11.08 °C 87.43 % 1,011.86 mbar 0.39 m/s 307.78 Deg N/A
2021-12-24 00:00 N/A 21.63 µg/m3 10.52 µg/m3 11.72 °C 85.27 % 1,012.03 mbar 0.42 m/s 233.13 Deg N/A
2021-12-23 23:00 N/A 37.79 µg/m3 5.92 µg/m3 12.56 °C 81.35 % 1,012.04 mbar 0.39 m/s 270.39 Deg N/A
2021-12-23 22:00 N/A 63.12 µg/m3 3.77 µg/m3 13.49 °C 76.88 % 1,011.89 mbar 0.94 m/s 175.46 Deg N/A
2021-12-23 21:00 N/A 70.31 µg/m3 3.35 µg/m3 13.89 °C 76.68 % 1,011.81 mbar 1.34 m/s 164.55 Deg N/A
2021-12-23 20:00 N/A 69.51 µg/m3 4.6 µg/m3 14.13 °C 76.11 % 1,011.48 mbar 1.72 m/s 186.6 Deg N/A
2021-12-23 19:00 N/A 62.39 µg/m3 3.14 µg/m3 14.06 °C 77.73 % 1,011.06 mbar 1.47 m/s 191.68 Deg N/A
2021-12-23 18:00 N/A 64.01 µg/m3 3.71 µg/m3 14.14 °C 75.63 % 1,010.64 mbar 1.93 m/s 194.8 Deg N/A
2021-12-23 17:00 N/A 67.15 µg/m3 2.78 µg/m3 14.46 °C 75.85 % 1,010.43 mbar 1.81 m/s 237.15 Deg N/A
2021-12-23 16:00 N/A 69.96 µg/m3 3.28 µg/m3 14.47 °C 76.43 % 1,010.54 mbar 2.23 m/s 284.25 Deg N/A
2021-12-23 15:00 N/A 71.09 µg/m3 4.43 µg/m3 14.65 °C 75.6 % 1,010.32 mbar 2.02 m/s 232.03 Deg N/A
2021-12-23 14:00 N/A 73.33 µg/m3 4.26 µg/m3 14.93 °C 73.11 % 1,010.20 mbar 2.48 m/s 218.35 Deg N/A
2021-12-23 13:00 N/A 76.58 µg/m3 5 µg/m3 15.06 °C 69.28 % 1,010.46 mbar 2.54 m/s 170.07 Deg N/A
2021-12-23 12:00 N/A 63.28 µg/m3 4.03 µg/m3 14.96 °C 72.61 % 1,010.74 mbar 2.43 m/s 161.38 Deg N/A
2021-12-23 11:00 N/A 65.26 µg/m3 5.39 µg/m3 14.77 °C 75.29 % 1,011.28 mbar 2.43 m/s 162.63 Deg N/A
2021-12-23 10:00 N/A 67.06 µg/m3 3.62 µg/m3 14.33 °C 75.61 % 1,011.35 mbar 1.99 m/s 200.75 Deg N/A
2021-12-23 09:00 N/A 69.06 µg/m3 2.78 µg/m3 14.08 °C 77.02 % 1,010.74 mbar 1.78 m/s 202.76 Deg N/A
2021-12-23 08:00 N/A 71.52 µg/m3 2.18 µg/m3 13.8 °C 77.08 % 1,010.47 mbar 1.98 m/s 271.35 Deg N/A
2021-12-23 07:00 N/A 74.54 µg/m3 0.78 µg/m3 13.81 °C 78.52 % 1,010.34 mbar 2.07 m/s 266.55 Deg N/A
2021-12-23 06:00 N/A 75.75 µg/m3 1.27 µg/m3 13.76 °C 78.96 % 1,010.15 mbar 1.9 m/s 238.13 Deg N/A
2021-12-23 05:00 N/A 77.78 µg/m3 1.82 µg/m3 13.62 °C 78.06 % 1,009.99 mbar 1.82 m/s 284.62 Deg N/A
2021-12-23 04:00 N/A 78.43 µg/m3 2.67 µg/m3 13.8 °C 76.54 % 1,010.06 mbar 1.89 m/s 249.05 Deg N/A
2021-12-23 03:00 N/A 75.96 µg/m3 3.05 µg/m3 13.74 °C 76.07 % 1,010.20 mbar 1.67 m/s 256.45 Deg N/A
2021-12-23 02:00 N/A 75.22 µg/m3 2.9 µg/m3 13.77 °C 76.84 % 1,010.31 mbar 1.46 m/s 250.77 Deg N/A
2021-12-23 01:00 N/A 70.45 µg/m3 3.86 µg/m3 13.92 °C 75.15 % 1,010.30 mbar 1.55 m/s 201.67 Deg N/A
2021-12-23 00:00 N/A 64.56 µg/m3 6.11 µg/m3 14 °C 72.27 % 1,010.43 mbar 1.35 m/s 176.8 Deg N/A
2021-12-22 23:00 N/A 44.62 µg/m3 6.3 µg/m3 13.85 °C 73.69 % 1,010.53 mbar 1.06 m/s 140.33 Deg N/A
2021-12-22 22:00 N/A 55.44 µg/m3 10.23 µg/m3 13.93 °C 73.57 % 1,010.38 mbar 1.24 m/s 141.81 Deg N/A
2021-12-22 21:00 N/A 24.16 µg/m3 9.04 µg/m3 13.85 °C 75.36 % 1,010.45 mbar 0.9 m/s 148.77 Deg N/A
2021-12-22 20:00 N/A 26.82 µg/m3 6.09 µg/m3 13.93 °C 75.26 % 1,010.42 mbar 0.83 m/s 158.09 Deg N/A
2021-12-22 19:00 N/A 55.44 µg/m3 4.11 µg/m3 14.22 °C 73.15 % 1,010.09 mbar 1.21 m/s 173.57 Deg N/A
2021-12-22 18:00 N/A 52.99 µg/m3 3.56 µg/m3 14.41 °C 71.06 % 1,009.97 mbar 0.91 m/s 231.47 Deg N/A
2021-12-22 17:00 N/A 67.75 µg/m3 3.9 µg/m3 14.94 °C 67.57 % 1,009.95 mbar 0.73 m/s 235.38 Deg N/A
2021-12-22 16:00 N/A 74.34 µg/m3 4.03 µg/m3 15.76 °C 62.66 % 1,009.62 mbar 0.9 m/s 248.41 Deg N/A
2021-12-22 15:00 N/A 76.63 µg/m3 2.5 µg/m3 16.11 °C 59.17 % 1,009.39 mbar 1.46 m/s 260.78 Deg N/A
2021-12-22 14:00 N/A 75.87 µg/m3 2.31 µg/m3 16.36 °C 58.05 % 1,009.39 mbar 0.97 m/s 246.65 Deg N/A
2021-12-22 13:00 N/A 75.1 µg/m3 3.69 µg/m3 16.09 °C 61.11 % 1,009.72 mbar 1.01 m/s 264.64 Deg N/A
2021-12-22 12:00 N/A 75.24 µg/m3 3.54 µg/m3 15.82 °C 62.75 % 1,010.54 mbar 1.13 m/s 90.65 Deg N/A
2021-12-22 11:00 N/A 62.65 µg/m3 4.56 µg/m3 15 °C 66.7 % 1,011.47 mbar 0.68 m/s 93.6 Deg N/A
2021-12-22 10:00 N/A 52.79 µg/m3 19.48 µg/m3 15.08 °C 67.03 % 1,011.44 mbar 0.8 m/s 95.98 Deg N/A
2021-12-22 09:00 N/A 10.08 µg/m3 14.83 µg/m3 13.62 °C 74.89 % 1,011.20 mbar 0.33 m/s 294.57 Deg N/A
2021-12-22 08:00 N/A 1.62 µg/m3 6.26 µg/m3 10.67 °C 84.48 % 1,011.24 mbar 0.39 m/s 295.52 Deg N/A
2021-12-22 07:00 N/A 1.01 µg/m3 2.67 µg/m3 9.72 °C N/A 1,011.14 mbar 0.43 m/s 284.63 Deg N/A
2021-12-22 06:00 N/A 20.17 µg/m3 2.71 µg/m3 9.86 °C N/A 1,010.71 mbar 0.66 m/s 280.28 Deg N/A
2021-12-22 05:00 N/A 48.52 µg/m3 3.18 µg/m3 11.09 °C N/A 1,010.51 mbar 0.31 m/s 298.13 Deg N/A
2021-12-22 04:00 N/A 49.36 µg/m3 2.18 µg/m3 12.04 °C N/A 1,010.67 mbar 0.29 m/s 300.38 Deg N/A
2021-12-22 03:00 N/A 57.17 µg/m3 3.03 µg/m3 12.4 °C N/A 1,011.05 mbar 0.63 m/s 333.72 Deg N/A
2021-12-22 02:00 N/A 38.15 µg/m3 7.25 µg/m3 11.61 °C N/A 1,011.02 mbar 0.49 m/s 289.99 Deg N/A
2021-12-22 01:00 N/A 29.65 µg/m3 9.29 µg/m3 11.72 °C N/A 1,011.27 mbar 0.36 m/s 296.65 Deg N/A
2021-12-22 00:00 N/A 27.68 µg/m3 12.6 µg/m3 11.33 °C N/A 1,011.44 mbar 0.28 m/s 290.65 Deg N/A
2021-12-21 23:00 N/A 15.73 µg/m3 12.79 µg/m3 10.69 °C N/A 1,011.54 mbar 0.33 m/s 297.31 Deg N/A
2021-12-21 22:00 N/A 11.98 µg/m3 12.9 µg/m3 10.59 °C N/A 1,011.44 mbar 0.36 m/s 276.68 Deg N/A
2021-12-21 21:00 N/A 3.05 µg/m3 18.12 µg/m3 10.76 °C N/A 1,011.41 mbar 0.42 m/s 289.93 Deg N/A
2021-12-21 20:00 N/A 2.78 µg/m3 14.28 µg/m3 11.31 °C N/A 1,011.27 mbar 0.33 m/s 299.55 Deg N/A
2021-12-21 19:00 N/A 2.86 µg/m3 9.89 µg/m3 11.84 °C N/A 1,011.07 mbar 0.53 m/s 279.92 Deg N/A
2021-12-21 18:00 N/A 18.32 µg/m3 5.73 µg/m3 13.14 °C N/A 1,010.67 mbar 0.52 m/s 302.53 Deg N/A
2021-12-21 17:00 N/A 66.92 µg/m3 4.11 µg/m3 14.3 °C N/A 1,010.28 mbar 1.04 m/s 13.23 Deg N/A
2021-12-21 16:00 N/A 76.94 µg/m3 3.24 µg/m3 14.84 °C N/A 1,010.01 mbar 1.61 m/s 101.83 Deg N/A
2021-12-21 15:00 N/A 77.89 µg/m3 3.26 µg/m3 15.63 °C N/A 1,009.69 mbar 1.88 m/s 15.03 Deg N/A
2021-12-21 14:00 N/A 77.71 µg/m3 4.24 µg/m3 15.73 °C N/A 1,009.79 mbar 1.81 m/s 16.28 Deg N/A
2021-12-21 13:00 N/A 76.87 µg/m3 3.58 µg/m3 15.53 °C N/A 1,010.22 mbar 1.86 m/s 100.42 Deg N/A
2021-12-21 12:00 N/A 74.94 µg/m3 3.77 µg/m3 15.74 °C N/A 1,010.84 mbar 1.63 m/s 182.72 Deg N/A
2021-12-21 11:00 N/A 73.11 µg/m3 5.15 µg/m3 15.33 °C N/A 1,011.04 mbar 1.79 m/s 95.23 Deg N/A
2021-12-21 10:00 N/A 65.75 µg/m3 8.8 µg/m3 14.83 °C N/A 1,010.96 mbar 1.62 m/s 182.43 Deg N/A
2021-12-21 09:00 N/A 37.28 µg/m3 8.04 µg/m3 13.64 °C N/A 1,010.39 mbar 0.91 m/s 95.26 Deg N/A
2021-12-21 08:00 N/A 35.39 µg/m3 4.81 µg/m3 12.45 °C N/A 1,009.97 mbar 0.8 m/s 260.32 Deg N/A

It is to be noted that the data is provisional and subject to quality assurance procedures. For validated data kindly refer your request to contact.air@era.org.mt